Wetterdaten: Mittwoch, 19.04.2023
Datum Zeit Temp. Aussen Temp. o. S. Temp +5cm Feuchte Auss Luftdruck Regen Sonnenschein Regendauer Solar Windben Empfang
19.04.2023 00:00 10,6 C 10,0 C 6,7 C 80 % 1026,6 hPa 0,0 l/m 0 min 0 min 0 W/m 22,5 km/h (4 Bft) 100,00 %
19.04.2023 00:02 10,6 C 10,0 C 6,7 C 80 % 1026,7 hPa 0,0 l/m 0 min 0 min 0 W/m 16,1 km/h (3 Bft) 100,00 %
19.04.2023 00:04 10,6 C 10,0 C 6,7 C 81 % 1026,7 hPa 0,0 l/m 0 min 0 min 0 W/m 16,1 km/h (3 Bft) 97,92 %
19.04.2023 00:07 10,6 C 10,0 C 6,7 C 80 % 1026,7 hPa 0,0 l/m 0 min 0 min 0 W/m 16,1 km/h (3 Bft) 94,29 %
19.04.2023 00:08 10,6 C 10,0 C 6,7 C 80 % 1026,7 hPa 0,0 l/m 0 min 0 min 0 W/m 9,7 km/h (2 Bft) 95,83 %
19.04.2023 00:12 10,6 C 10,0 C 6,7 C 81 % 1026,6 hPa 0,0 l/m 0 min 0 min 0 W/m 16,1 km/h (3 Bft) 95,83 %
19.04.2023 00:14 10,6 C 10,0 C 6,7 C 80 % 1026,6 hPa 0,0 l/m 0 min 0 min 0 W/m 12,9 km/h (3 Bft) 97,92 %
19.04.2023 00:16 10,6 C 10,0 C 6,7 C 81 % 1026,7 hPa 0,0 l/m 0 min 0 min 0 W/m 16,1 km/h (3 Bft) 100,00 %
19.04.2023 00:18 10,6 C 10,0 C 6,7 C 80 % 1026,7 hPa 0,0 l/m 0 min 0 min 0 W/m 12,9 km/h (3 Bft) 100,00 %
19.04.2023 00:20 10,6 C 10,0 C 6,7 C 80 % 1026,8 hPa 0,0 l/m 0 min 0 min 0 W/m 22,5 km/h (4 Bft) 100,00 %
19.04.2023 00:22 10,6 C 10,0 C 6,7 C 80 % 1026,7 hPa 0,0 l/m 0 min 0 min 0 W/m 16,1 km/h (3 Bft) 100,00 %
19.04.2023 00:24 10,6 C 10,0 C 6,7 C 80 % 1026,7 hPa 0,0 l/m 0 min 0 min 0 W/m 12,9 km/h (3 Bft) 100,00 %
19.04.2023 00:26 10,6 C 10,0 C 6,1 C 80 % 1026,7 hPa 0,0 l/m 0 min 0 min 0 W/m 12,9 km/h (3 Bft) 100,00 %
19.04.2023 00:28 10,6 C 10,0 C 6,7 C 81 % 1026,7 hPa 0,0 l/m 0 min 0 min 0 W/m 25,7 km/h (4 Bft) 100,00 %
19.04.2023 00:30 10,6 C 10,0 C 6,7 C 80 % 1026,7 hPa 0,0 l/m 0 min 0 min 0 W/m 16,1 km/h (3 Bft) 100,00 %
19.04.2023 00:32 10,6 C 10,0 C 6,7 C 80 % 1026,8 hPa 0,0 l/m 0 min 0 min 0 W/m 22,5 km/h (4 Bft) 97,87 %
19.04.2023 00:34 10,6 C 10,0 C 6,7 C 80 % 1026,8 hPa 0,0 l/m 0 min 0 min 0 W/m 12,9 km/h (3 Bft) 100,00 %
19.04.2023 00:36 10,6 C 10,0 C 6,7 C 80 % 1026,8 hPa 0,0 l/m 0 min 0 min 0 W/m 12,9 km/h (3 Bft) 100,00 %
19.04.2023 00:38 10,6 C 10,0 C 6,7 C 80 % 1026,8 hPa 0,0 l/m 0 min 0 min 0 W/m 16,1 km/h (3 Bft) 97,87 %
19.04.2023 00:40 10,6 C 10,0 C 6,7 C 80 % 1026,8 hPa 0,0 l/m 0 min 0 min 0 W/m 12,9 km/h (3 Bft) 97,83 %
19.04.2023 00:42 10,6 C 10,0 C 6,7 C 81 % 1026,8 hPa 0,0 l/m 0 min 0 min 0 W/m 16,1 km/h (3 Bft) 97,87 %
19.04.2023 00:44 10,6 C 10,0 C 6,1 C 81 % 1026,8 hPa 0,0 l/m 0 min 0 min 0 W/m 12,9 km/h (3 Bft) 97,87 %
19.04.2023 00:46 10,6 C 10,0 C 6,1 C 81 % 1026,8 hPa 0,0 l/m 0 min 0 min 0 W/m 16,1 km/h (3 Bft) 97,87 %
19.04.2023 00:48 10,6 C 10,0 C 6,1 C 81 % 1026,8 hPa 0,0 l/m 0 min 0 min 0 W/m 12,9 km/h (3 Bft) 97,87 %
19.04.2023 00:50 10,6 C 10,0 C 6,1 C 81 % 1026,8 hPa 0,0 l/m 0 min 0 min 0 W/m 9,7 km/h (2 Bft) 95,74 %
19.04.2023 00:52 10,6 C 10,0 C 6,1 C 81 % 1026,8 hPa 0,0 l/m 0 min 0 min 0 W/m 9,7 km/h (2 Bft) 97,83 %
19.04.2023 00:54 10,6 C 10,0 C 6,1 C 81 % 1026,8 hPa 0,0 l/m 0 min 0 min 0 W/m 9,7 km/h (2 Bft) 93,62 %
19.04.2023 00:56 10,6 C 10,0 C 6,1 C 81 % 1026,8 hPa 0,0 l/m 0 min 0 min 0 W/m 6,4 km/h (2 Bft) 95,83 %
19.04.2023 00:58 10,6 C 10,0 C 6,1 C 81 % 1026,8 hPa 0,0 l/m 0 min 0 min 0 W/m 9,7 km/h (2 Bft) 93,62 %
19.04.2023 01:00 10,6 C 10,0 C 6,1 C 81 % 1026,8 hPa 0,0 l/m 0 min 0 min 0 W/m 12,9 km/h (3 Bft) 95,74 %
19.04.2023 01:02 10,6 C 10,0 C 6,1 C 81 % 1026,8 hPa 0,0 l/m 0 min 0 min 0 W/m 12,9 km/h (3 Bft) 97,87 %
19.04.2023 01:04 10,6 C 10,0 C 6,1 C 81 % 1026,8 hPa 0,0 l/m 0 min 0 min 0 W/m 16,1 km/h (3 Bft) 93,62 %
19.04.2023 01:06 10,6 C 10,0 C 6,1 C 81 % 1026,8 hPa 0,0 l/m 0 min 0 min 0 W/m 12,9 km/h (3 Bft) 93,48 %
19.04.2023 01:08 10,6 C 10,0 C 6,1 C 81 % 1026,8 hPa 0,0 l/m 0 min 0 min 0 W/m 9,7 km/h (2 Bft) 95,74 %
19.04.2023 01:10 10,6 C 10,0 C 6,1 C 81 % 1026,7 hPa 0,0 l/m 0 min 0 min 0 W/m 9,7 km/h (2 Bft) 93,62 %
19.04.2023 01:12 10,6 C 10,0 C 6,1 C 81 % 1026,7 hPa 0,0 l/m 0 min 0 min 0 W/m 16,1 km/h (3 Bft) 95,74 %
19.04.2023 01:14 10,6 C 10,0 C 6,1 C 81 % 1026,7 hPa 0,0 l/m 0 min 0 min 0 W/m 12,9 km/h (3 Bft) 97,87 %
19.04.2023 01:16 10,6 C 10,0 C 6,7 C 81 % 1026,8 hPa 0,0 l/m 0 min 0 min 0 W/m 12,9 km/h (3 Bft) 97,30 %
19.04.2023 01:18 10,6 C 10,0 C 6,7 C 81 % 1026,8 hPa 0,0 l/m 0 min 0 min 0 W/m 9,7 km/h (2 Bft) 97,87 %
19.04.2023 01:20 10,6 C 10,0 C 6,1 C 81 % 1026,8 hPa 0,0 l/m 0 min 0 min 0 W/m 12,9 km/h (3 Bft) 97,87 %
19.04.2023 01:22 10,6 C 10,0 C 6,1 C 81 % 1026,8 hPa 0,0 l/m 0 min 0 min 0 W/m 16,1 km/h (3 Bft) 95,74 %
19.04.2023 01:24 10,6 C 10,0 C 6,1 C 81 % 1026,8 hPa 0,0 l/m 0 min 0 min 0 W/m 9,7 km/h (2 Bft) 97,87 %
19.04.2023 01:26 10,6 C 10,0 C 6,1 C 81 % 1026,8 hPa 0,0 l/m 0 min 0 min 0 W/m 12,9 km/h (3 Bft) 93,48 %
19.04.2023 01:28 10,6 C 10,0 C 6,1 C 81 % 1026,8 hPa 0,0 l/m 0 min 0 min 0 W/m 9,7 km/h (2 Bft) 93,62 %
19.04.2023 01:30 10,6 C 10,0 C 6,7 C 81 % 1026,8 hPa 0,0 l/m 0 min 0 min 0 W/m 9,7 km/h (2 Bft) 93,62 %
19.04.2023 01:32 10,6 C 10,0 C 6,7 C 81 % 1026,8 hPa 0,0 l/m 0 min 0 min 0 W/m 9,7 km/h (2 Bft) 95,74 %
19.04.2023 01:34 10,6 C 10,0 C 6,1 C 81 % 1026,7 hPa 0,0 l/m 0 min 0 min 0 W/m 16,1 km/h (3 Bft) 95,74 %
19.04.2023 01:36 10,6 C 10,0 C 6,1 C 81 % 1026,7 hPa 0,0 l/m 0 min 0 min 0 W/m 9,7 km/h (2 Bft) 96,23 %
19.04.2023 01:38 10,6 C 10,0 C 6,1 C 82 % 1026,7 hPa 0,0 l/m 0 min 0 min 0 W/m 12,9 km/h (3 Bft) 95,83 %
19.04.2023 01:40 10,6 C 10,0 C 6,1 C 82 % 1026,7 hPa 0,0 l/m 0 min 0 min 0 W/m 12,9 km/h (3 Bft) 95,74 %
19.04.2023 01:42 10,6 C 10,0 C 6,1 C 82 % 1026,7 hPa 0,0 l/m 0 min 0 min 0 W/m 9,7 km/h (2 Bft) 95,74 %
19.04.2023 01:44 10,6 C 10,0 C 6,1 C 82 % 1026,7 hPa 0,0 l/m 0 min 0 min 0 W/m 9,7 km/h (2 Bft) 95,74 %
19.04.2023 01:46 10,6 C 10,0 C 6,1 C 82 % 1026,7 hPa 0,0 l/m 0 min 0 min 0 W/m 9,7 km/h (2 Bft) 97,87 %
19.04.2023 01:48 10,6 C 10,0 C 6,1 C 82 % 1026,7 hPa 0,0 l/m 0 min 0 min 0 W/m 9,7 km/h (2 Bft) 95,65 %
19.04.2023 01:50 10,6 C 10,0 C 6,1 C 82 % 1026,7 hPa 0,0 l/m 0 min 0 min 0 W/m 12,9 km/h (3 Bft) 97,87 %
19.04.2023 01:52 10,6 C 10,0 C 6,1 C 82 % 1026,7 hPa 0,0 l/m 0 min 0 min 0 W/m 9,7 km/h (2 Bft) 97,87 %
19.04.2023 01:54 10,6 C 10,0 C 6,1 C 82 % 1026,7 hPa 0,0 l/m 0 min 0 min 0 W/m 9,7 km/h (2 Bft) 97,87 %
19.04.2023 01:56 10,6 C 10,0 C 6,1 C 82 % 1026,7 hPa 0,0 l/m 0 min 0 min 0 W/m 12,9 km/h (3 Bft) 95,74 %
19.04.2023 01:58 10,6 C 10,0 C 6,1 C 82 % 1026,7 hPa 0,0 l/m 0 min 0 min 0 W/m 12,9 km/h (3 Bft) 98,00 %
19.04.2023 02:00 10,6 C 10,0 C 6,1 C 82 % 1026,7 hPa 0,0 l/m 0 min 0 min 0 W/m 12,9 km/h (3 Bft) 97,22 %
19.04.2023 02:02 10,6 C 10,0 C 6,1 C 82 % 1026,7 hPa 0,0 l/m 0 min 0 min 0 W/m 16,1 km/h (3 Bft) 97,87 %
19.04.2023 02:04 10,6 C 10,0 C 6,1 C 82 % 1026,6 hPa 0,0 l/m 0 min 0 min 0 W/m 6,4 km/h (2 Bft) 97,83 %
19.04.2023 02:06 10,6 C 10,0 C 6,1 C 82 % 1026,7 hPa 0,0 l/m 0 min 0 min 0 W/m 16,1 km/h (3 Bft) 100,00 %
19.04.2023 02:08 10,6 C 10,0 C 6,1 C 82 % 1026,6 hPa 0,0 l/m 0 min 0 min 0 W/m 6,4 km/h (2 Bft) 100,00 %
19.04.2023 02:10 10,6 C 10,0 C 6,1 C 82 % 1026,6 hPa 0,0 l/m 0 min 0 min 0 W/m 9,7 km/h (2 Bft) 100,00 %
19.04.2023 02:12 10,6 C 10,0 C 6,1 C 82 % 1026,6 hPa 0,0 l/m 0 min 0 min 0 W/m 22,5 km/h (4 Bft) 100,00 %
19.04.2023 02:14 10,6 C 10,0 C 6,1 C 82 % 1026,6 hPa 0,0 l/m 0 min 0 min 0 W/m 9,7 km/h (2 Bft) 100,00 %
19.04.2023 02:16 10,6 C 10,0 C 6,1 C 82 % 1026,7 hPa 0,0 l/m 0 min 0 min 0 W/m 16,1 km/h (3 Bft) 100,00 %
19.04.2023 02:18 10,6 C 10,0 C 6,1 C 82 % 1026,6 hPa 0,0 l/m 0 min 0 min 0 W/m 9,7 km/h (2 Bft) 100,00 %
19.04.2023 02:20 10,6 C 10,0 C 6,1 C 82 % 1026,5 hPa 0,0 l/m 0 min 0 min 0 W/m 12,9 km/h (3 Bft) 100,00 %
19.04.2023 02:22 10,6 C 10,0 C 6,1 C 82 % 1026,5 hPa 0,0 l/m 0 min 0 min 0 W/m 16,1 km/h (3 Bft) 97,87 %
19.04.2023 02:24 10,6 C 10,0 C 6,1 C 83 % 1026,5 hPa 0,0 l/m 0 min 0 min 0 W/m 9,7 km/h (2 Bft) 97,87 %
19.04.2023 02:26 10,6 C 10,0 C 6,1 C 83 % 1026,6 hPa 0,0 l/m 0 min 0 min 0 W/m 22,5 km/h (4 Bft) 100,00 %
19.04.2023 02:28 10,5 C 10,0 C 6,1 C 83 % 1026,6 hPa 0,0 l/m 0 min 0 min 0 W/m 9,7 km/h (2 Bft) 100,00 %
19.04.2023 02:30 10,5 C 10,0 C 6,1 C 83 % 1026,5 hPa 0,0 l/m 0 min 0 min 0 W/m 6,4 km/h (2 Bft) 100,00 %
19.04.2023 02:32 10,5 C 10,0 C 6,1 C 83 % 1026,6 hPa 0,0 l/m 0 min 0 min 0 W/m 12,9 km/h (3 Bft) 97,87 %
19.04.2023 02:34 10,5 C 10,0 C 6,1 C 83 % 1026,6 hPa 0,0 l/m 0 min 0 min 0 W/m 12,9 km/h (3 Bft) 95,74 %
19.04.2023 02:36 10,5 C 10,0 C 6,1 C 83 % 1026,6 hPa 0,0 l/m 0 min 0 min 0 W/m 6,4 km/h (2 Bft) 95,65 %
19.04.2023 02:38 10,5 C 10,0 C 6,1 C 83 % 1026,6 hPa 0,0 l/m 0 min 0 min 0 W/m 9,7 km/h (2 Bft) 96,00 %
19.04.2023 02:40 10,5 C 10,0 C 6,1 C 83 % 1026,6 hPa 0,0 l/m 0 min 0 min 0 W/m 9,7 km/h (2 Bft) 97,87 %
19.04.2023 02:42 10,5 C 10,0 C 6,1 C 83 % 1026,6 hPa 0,0 l/m 0 min 0 min 0 W/m 9,7 km/h (2 Bft) 97,87 %
19.04.2023 02:44 10,5 C 10,0 C 6,1 C 83 % 1026,5 hPa 0,0 l/m 0 min 0 min 0 W/m 12,9 km/h (3 Bft) 97,87 %
19.04.2023 02:46 10,5 C 10,0 C 6,1 C 83 % 1026,5 hPa 0,0 l/m 0 min 0 min 0 W/m 9,7 km/h (2 Bft) 95,74 %
19.04.2023 02:48 10,5 C 10,0 C 6,1 C 84 % 1026,5 hPa 0,0 l/m 0 min 0 min 0 W/m 12,9 km/h (3 Bft) 97,83 %
19.04.2023 02:50 10,5 C 10,0 C 6,1 C 84 % 1026,5 hPa 0,0 l/m 0 min 0 min 0 W/m 9,7 km/h (2 Bft) 97,87 %
19.04.2023 02:52 10,5 C 10,0 C 6,1 C 84 % 1026,5 hPa 0,0 l/m 0 min 0 min 0 W/m 9,7 km/h (2 Bft) 97,87 %
19.04.2023 02:54 10,5 C 10,0 C 6,1 C 84 % 1026,5 hPa 0,0 l/m 0 min 0 min 0 W/m 12,9 km/h (3 Bft) 97,87 %
19.04.2023 02:56 10,5 C 10,0 C 6,1 C 84 % 1026,5 hPa 0,0 l/m 0 min 0 min 0 W/m 12,9 km/h (3 Bft) 97,87 %
19.04.2023 02:58 10,5 C 10,0 C 6,1 C 84 % 1026,5 hPa 0,0 l/m 0 min 0 min 0 W/m 12,9 km/h (3 Bft) 95,74 %
19.04.2023 03:00 10,5 C 10,0 C 6,1 C 84 % 1026,5 hPa 0,0 l/m 0 min 0 min 0 W/m 9,7 km/h (2 Bft) 95,74 %
19.04.2023 03:02 10,5 C 10,0 C 6,1 C 84 % 1026,4 hPa 0,0 l/m 0 min 0 min 0 W/m 12,9 km/h (3 Bft) 100,00 %
19.04.2023 03:04 10,5 C 10,0 C 6,1 C 84 % 1026,4 hPa 0,0 l/m 0 min 0 min 0 W/m 16,1 km/h (3 Bft) 100,00 %
19.04.2023 03:06 10,5 C 10,0 C 6,1 C 84 % 1026,4 hPa 0,0 l/m 0 min 0 min 0 W/m 16,1 km/h (3 Bft) 100,00 %
19.04.2023 03:08 10,5 C 10,0 C 6,1 C 84 % 1026,4 hPa 0,0 l/m 0 min 0 min 0 W/m 12,9 km/h (3 Bft) 100,00 %
19.04.2023 03:10 10,5 C 10,0 C 6,1 C 84 % 1026,4 hPa 0,0 l/m 0 min 0 min 0 W/m 9,7 km/h (2 Bft) 97,87 %
19.04.2023 03:12 10,5 C 10,0 C 6,1 C 84 % 1026,3 hPa 0,0 l/m 0 min 0 min 0 W/m 12,9 km/h (3 Bft) 100,00 %
19.04.2023 03:14 10,5 C 10,0 C 6,1 C 84 % 1026,4 hPa 0,0 l/m 0 min 0 min 0 W/m 12,9 km/h (3 Bft) 97,83 %
19.04.2023 03:16 10,5 C 10,0 C 6,1 C 85 % 1026,4 hPa 0,0 l/m 0 min 0 min 0 W/m 12,9 km/h (3 Bft) 97,87 %
19.04.2023 03:18 10,5 C 10,0 C 6,1 C 85 % 1026,4 hPa 0,0 l/m 0 min 0 min 0 W/m 9,7 km/h (2 Bft) 100,00 %
19.04.2023 03:20 10,5 C 10,0 C 6,1 C 85 % 1026,3 hPa 0,0 l/m 0 min 0 min 0 W/m 12,9 km/h (3 Bft) 100,00 %
19.04.2023 03:22 10,4 C 10,0 C 6,1 C 85 % 1026,3 hPa 0,0 l/m 0 min 0 min 0 W/m 12,9 km/h (3 Bft) 97,87 %
19.04.2023 03:24 10,4 C 10,0 C 6,1 C 85 % 1026,3 hPa 0,0 l/m 0 min 0 min 0 W/m 6,4 km/h (2 Bft) 100,00 %
19.04.2023 03:26 10,4 C 10,0 C 6,1 C 85 % 1026,3 hPa 0,0 l/m 0 min 0 min 0 W/m 12,9 km/h (3 Bft) 97,87 %
19.04.2023 03:28 10,4 C 10,0 C 6,1 C 85 % 1026,3 hPa 0,0 l/m 0 min 0 min 0 W/m 6,4 km/h (2 Bft) 100,00 %
19.04.2023 03:30 10,4 C 10,0 C 6,1 C 85 % 1026,3 hPa 0,0 l/m 0 min 0 min 0 W/m 12,9 km/h (3 Bft) 100,00 %
19.04.2023 03:32 10,4 C 10,0 C 6,1 C 85 % 1026,3 hPa 0,0 l/m 0 min 0 min 0 W/m 6,4 km/h (2 Bft) 100,00 %
19.04.2023 03:34 10,4 C 10,0 C 6,1 C 85 % 1026,3 hPa 0,0 l/m 0 min 0 min 0 W/m 6,4 km/h (2 Bft) 100,00 %
19.04.2023 03:36 10,4 C 10,0 C 6,1 C 85 % 1026,3 hPa 0,0 l/m 0 min 0 min 0 W/m 9,7 km/h (2 Bft) 100,00 %
19.04.2023 03:38 10,4 C 10,0 C 6,1 C 85 % 1026,3 hPa 0,0 l/m 0 min 0 min 0 W/m 12,9 km/h (3 Bft) 97,87 %
19.04.2023 03:40 10,4 C 10,0 C 6,1 C 85 % 1026,3 hPa 0,0 l/m 0 min 0 min 0 W/m 9,7 km/h (2 Bft) 97,87 %
19.04.2023 03:42 10,4 C 10,0 C 6,1 C 86 % 1026,3 hPa 0,0 l/m 0 min 0 min 0 W/m 9,7 km/h (2 Bft) 95,65 %
19.04.2023 03:44 10,4 C 10,0 C 6,1 C 86 % 1026,3 hPa 0,0 l/m 0 min 0 min 0 W/m 9,7 km/h (2 Bft) 100,00 %
19.04.2023 03:46 10,4 C 10,0 C 6,1 C 86 % 1026,2 hPa 0,0 l/m 0 min 0 min 0 W/m 12,9 km/h (3 Bft) 100,00 %
19.04.2023 03:48 10,4 C 10,0 C 6,1 C 86 % 1026,2 hPa 0,0 l/m 0 min 0 min 0 W/m 9,7 km/h (2 Bft) 96,08 %
19.04.2023 03:50 10,4 C 10,0 C 6,1 C 86 % 1026,2 hPa 0,0 l/m 0 min 0 min 0 W/m 12,9 km/h (3 Bft) 97,87 %
19.04.2023 03:52 10,4 C 10,0 C 6,1 C 86 % 1026,2 hPa 0,0 l/m 0 min 0 min 0 W/m 9,7 km/h (2 Bft) 97,87 %
19.04.2023 03:54 10,4 C 10,0 C 6,1 C 86 % 1026,2 hPa 0,0 l/m 0 min 0 min 0 W/m 9,7 km/h (2 Bft) 97,83 %
19.04.2023 03:56 10,4 C 10,0 C 6,1 C 86 % 1026,2 hPa 0,0 l/m 0 min 0 min 0 W/m 12,9 km/h (3 Bft) 97,87 %
19.04.2023 03:58 10,4 C 10,0 C 6,1 C 86 % 1026,2 hPa 0,0 l/m 0 min 0 min 0 W/m 12,9 km/h (3 Bft) 93,62 %
19.04.2023 04:00 10,4 C 10,0 C 6,1 C 86 % 1026,3 hPa 0,0 l/m 0 min 0 min 0 W/m 6,4 km/h (2 Bft) 95,74 %
19.04.2023 04:02 10,4 C 10,0 C 6,1 C 86 % 1026,3 hPa 0,0 l/m 0 min 0 min 0 W/m 3,2 km/h (1 Bft) 100,00 %
19.04.2023 04:04 10,4 C 10,0 C 6,1 C 86 % 1026,2 hPa 0,0 l/m 0 min 0 min 0 W/m 16,1 km/h (3 Bft) 93,75 %
19.04.2023 04:06 10,4 C 10,0 C 6,1 C 86 % 1026,2 hPa 0,0 l/m 0 min 0 min 0 W/m 6,4 km/h (2 Bft) 95,65 %
19.04.2023 04:08 10,4 C 10,0 C 6,1 C 86 % 1026,2 hPa 0,0 l/m 0 min 0 min 0 W/m 9,7 km/h (2 Bft) 93,62 %
19.04.2023 04:10 10,4 C 10,0 C 6,1 C 87 % 1026,2 hPa 0,0 l/m 0 min 0 min 0 W/m 12,9 km/h (3 Bft) 93,62 %
19.04.2023 04:12 10,4 C 10,0 C 6,1 C 87 % 1026,1 hPa 0,0 l/m 0 min 0 min 0 W/m 12,9 km/h (3 Bft) 95,83 %
19.04.2023 04:14 10,5 C 10,0 C 6,1 C 87 % 1026,1 hPa 0,0 l/m 0 min 0 min 0 W/m 12,9 km/h (3 Bft) 97,14 %
19.04.2023 04:16 10,5 C 10,0 C 6,1 C 87 % 1026,1 hPa 0,0 l/m 0 min 0 min 0 W/m 9,7 km/h (2 Bft) 95,74 %
19.04.2023 04:18 10,5 C 10,0 C 6,1 C 87 % 1026,1 hPa 0,0 l/m 0 min 0 min 0 W/m 19,3 km/h (3 Bft) 91,49 %
19.04.2023 04:20 10,5 C 10,0 C 6,1 C 87 % 1026,1 hPa 0,0 l/m 0 min 0 min 0 W/m 12,9 km/h (3 Bft) 93,62 %
19.04.2023 04:22 10,5 C 10,0 C 6,1 C 87 % 1026,1 hPa 0,0 l/m 0 min 0 min 0 W/m 16,1 km/h (3 Bft) 97,87 %
19.04.2023 04:24 10,5 C 10,0 C 6,1 C 87 % 1026,1 hPa 0,0 l/m 0 min 0 min 0 W/m 9,7 km/h (2 Bft) 93,48 %
19.04.2023 04:26 10,5 C 10,0 C 6,1 C 87 % 1026,1 hPa 0,0 l/m 0 min 0 min 0 W/m 16,1 km/h (3 Bft) 93,62 %
19.04.2023 04:28 10,6 C 10,0 C 6,1 C 87 % 1026,1 hPa 0,0 l/m 0 min 0 min 0 W/m 9,7 km/h (2 Bft) 93,62 %
19.04.2023 04:30 10,6 C 10,0 C 6,1 C 87 % 1026,1 hPa 0,0 l/m 0 min 0 min 0 W/m 16,1 km/h (3 Bft) 93,62 %
19.04.2023 04:32 10,6 C 10,0 C 6,1 C 87 % 1026,0 hPa 0,0 l/m 0 min 0 min 0 W/m 12,9 km/h (3 Bft) 93,62 %
19.04.2023 04:34 10,6 C 10,0 C 6,1 C 87 % 1026,0 hPa 0,0 l/m 0 min 0 min 0 W/m 16,1 km/h (3 Bft) 93,62 %
19.04.2023 04:36 10,6 C 10,0 C 6,1 C 87 % 1026,0 hPa 0,0 l/m 0 min 0 min 0 W/m 16,1 km/h (3 Bft) 93,48 %
19.04.2023 04:38 10,6 C 10,0 C 6,1 C 87 % 1026,1 hPa 0,0 l/m 0 min 0 min 0 W/m 12,9 km/h (3 Bft) 91,49 %
19.04.2023 04:40 10,6 C 10,0 C 6,1 C 87 % 1026,1 hPa 0,0 l/m 0 min 0 min 0 W/m 16,1 km/h (3 Bft) 95,74 %
19.04.2023 04:42 10,6 C 10,0 C 6,1 C 87 % 1026,1 hPa 0,0 l/m 0 min 0 min 0 W/m 12,9 km/h (3 Bft) 97,87 %
19.04.2023 04:44 10,6 C 10,0 C 6,1 C 87 % 1026,1 hPa 0,0 l/m 0 min 0 min 0 W/m 12,9 km/h (3 Bft) 97,87 %
19.04.2023 04:46 10,6 C 10,0 C 6,1 C 87 % 1026,1 hPa 0,0 l/m 0 min 0 min 0 W/m 16,1 km/h (3 Bft) 97,87 %
19.04.2023 04:48 10,6 C 10,0 C 6,1 C 87 % 1026,1 hPa 0,0 l/m 0 min 0 min 0 W/m 12,9 km/h (3 Bft) 97,87 %
19.04.2023 04:50 10,6 C 10,0 C 6,1 C 87 % 1026,1 hPa 0,0 l/m 0 min 0 min 0 W/m 9,7 km/h (2 Bft) 97,83 %
19.04.2023 04:52 10,6 C 10,0 C 6,1 C 87 % 1026,1 hPa 0,0 l/m 0 min 0 min 0 W/m 12,9 km/h (3 Bft) 97,87 %
19.04.2023 04:54 10,5 C 9,4 C 6,1 C 87 % 1026,1 hPa 0,0 l/m 0 min 0 min 0 W/m 9,7 km/h (2 Bft) 97,87 %
19.04.2023 04:56 10,5 C 9,4 C 6,1 C 87 % 1026,2 hPa 0,0 l/m 0 min 0 min 0 W/m 9,7 km/h (2 Bft) 100,00 %
19.04.2023 04:58 10,5 C 9,4 C 6,1 C 87 % 1026,2 hPa 0,0 l/m 0 min 0 min 0 W/m 12,9 km/h (3 Bft) 100,00 %
19.04.2023 05:00 10,4 C 9,4 C 6,1 C 87 % 1026,2 hPa 0,0 l/m 0 min 0 min 0 W/m 9,7 km/h (2 Bft) 97,87 %
19.04.2023 05:02 10,4 C 9,4 C 6,1 C 87 % 1026,2 hPa 0,0 l/m 0 min 0 min 0 W/m 9,7 km/h (2 Bft) 100,00 %
19.04.2023 05:04 10,4 C 9,4 C 6,1 C 87 % 1026,1 hPa 0,0 l/m 0 min 0 min 0 W/m 6,4 km/h (2 Bft) 95,74 %
19.04.2023 05:06 10,4 C 9,4 C 6,1 C 87 % 1026,1 hPa 0,0 l/m 0 min 0 min 0 W/m 9,7 km/h (2 Bft) 100,00 %
19.04.2023 05:08 10,4 C 9,4 C 6,1 C 87 % 1026,1 hPa 0,0 l/m 0 min 0 min 0 W/m 9,7 km/h (2 Bft) 100,00 %
19.04.2023 05:10 10,3 C 9,4 C 6,1 C 87 % 1026,1 hPa 0,0 l/m 0 min 0 min 0 W/m 19,3 km/h (3 Bft) 100,00 %
19.04.2023 05:12 10,3 C 9,4 C 5,6 C 87 % 1026,1 hPa 0,0 l/m 0 min 0 min 0 W/m 19,3 km/h (3 Bft) 100,00 %
19.04.2023 05:14 10,3 C 9,4 C 5,6 C 87 % 1026,1 hPa 0,0 l/m 0 min 0 min 0 W/m 16,1 km/h (3 Bft) 100,00 %
19.04.2023 05:16 10,3 C 9,4 C 5,6 C 87 % 1026,0 hPa 0,0 l/m 0 min 0 min 0 W/m 12,9 km/h (3 Bft) 100,00 %
19.04.2023 05:18 10,3 C 9,4 C 5,6 C 87 % 1026,0 hPa 0,0 l/m 0 min 0 min 0 W/m 19,3 km/h (3 Bft) 100,00 %
19.04.2023 05:20 10,2 C 9,4 C 6,1 C 87 % 1026,0 hPa 0,0 l/m 0 min 0 min 0 W/m 9,7 km/h (2 Bft) 100,00 %
19.04.2023 05:22 10,2 C 9,4 C 6,1 C 87 % 1026,0 hPa 0,0 l/m 0 min 0 min 0 W/m 16,1 km/h (3 Bft) 100,00 %
19.04.2023 05:24 10,2 C 9,4 C 6,1 C 87 % 1026,0 hPa 0,0 l/m 0 min 0 min 0 W/m 16,1 km/h (3 Bft) 100,00 %
19.04.2023 05:26 10,2 C 9,4 C 6,1 C 87 % 1026,0 hPa 0,0 l/m 0 min 0 min 0 W/m 9,7 km/h (2 Bft) 100,00 %
19.04.2023 05:28 10,2 C 9,4 C 6,1 C 87 % 1026,0 hPa 0,0 l/m 0 min 0 min 0 W/m 9,7 km/h (2 Bft) 100,00 %
19.04.2023 05:30 10,2 C 9,4 C 6,1 C 87 % 1026,0 hPa 0,0 l/m 0 min 0 min 0 W/m 6,4 km/h (2 Bft) 100,00 %
19.04.2023 05:32 10,2 C 9,4 C 6,1 C 87 % 1026,0 hPa 0,0 l/m 0 min 0 min 0 W/m 9,7 km/h (2 Bft) 100,00 %
19.04.2023 05:34 10,2 C 9,4 C 6,1 C 87 % 1026,1 hPa 0,0 l/m 0 min 0 min 0 W/m 6,4 km/h (2 Bft) 100,00 %
19.04.2023 05:36 10,2 C 9,4 C 6,1 C 87 % 1026,0 hPa 0,0 l/m 0 min 0 min 0 W/m 6,4 km/h (2 Bft) 100,00 %
19.04.2023 05:38 10,2 C 9,4 C 6,1 C 87 % 1026,0 hPa 0,0 l/m 0 min 0 min 0 W/m 6,4 km/h (2 Bft) 28,57 %
19.04.2023 05:40 10,2 C 9,4 C 6,1 C 87 % 1026,0 hPa 0,0 l/m 0 min 0 min 0 W/m 9,7 km/h (2 Bft) 100,00 %
19.04.2023 05:42 10,2 C 9,4 C 6,1 C 87 % 1026,0 hPa 0,0 l/m 0 min 0 min 0 W/m 9,7 km/h (2 Bft) 97,87 %
19.04.2023 05:44 10,2 C 9,4 C 6,1 C 87 % 1026,0 hPa 0,0 l/m 0 min 0 min 0 W/m 6,4 km/h (2 Bft) 100,00 %
19.04.2023 05:46 10,2 C 9,4 C 6,1 C 87 % 1026,0 hPa 0,0 l/m 0 min 0 min 0 W/m 9,7 km/h (2 Bft) 100,00 %
19.04.2023 05:48 10,2 C 9,4 C 6,1 C 87 % 1026,0 hPa 0,0 l/m 0 min 0 min 0 W/m 6,4 km/h (2 Bft) 100,00 %
19.04.2023 05:50 10,2 C 9,4 C 6,1 C 87 % 1026,0 hPa 0,0 l/m 0 min 0 min 0 W/m 6,4 km/h (2 Bft) 100,00 %
19.04.2023 05:52 10,2 C 9,4 C 6,1 C 87 % 1026,0 hPa 0,0 l/m 0 min 0 min 0 W/m 9,7 km/h (2 Bft) 100,00 %
19.04.2023 05:54 10,1 C 9,4 C 6,1 C 87 % 1026,0 hPa 0,0 l/m 0 min 0 min 0 W/m 12,9 km/h (3 Bft) 100,00 %
19.04.2023 05:56 10,2 C 9,4 C 6,1 C 87 % 1026,0 hPa 0,0 l/m 0 min 0 min 0 W/m 6,4 km/h (2 Bft) 100,00 %
19.04.2023 05:58 10,1 C 9,4 C 6,1 C 87 % 1026,0 hPa 0,0 l/m 0 min 0 min 0 W/m 12,9 km/h (3 Bft) 100,00 %
19.04.2023 06:00 10,1 C 9,4 C 6,1 C 87 % 1025,9 hPa 0,0 l/m 0 min 0 min 0 W/m 9,7 km/h (2 Bft) 100,00 %
19.04.2023 06:02 10,1 C 9,4 C 6,1 C 87 % 1025,9 hPa 0,0 l/m 0 min 0 min 0 W/m 6,4 km/h (2 Bft) 100,00 %
19.04.2023 06:04 10,1 C 9,4 C 6,1 C 87 % 1025,9 hPa 0,0 l/m 0 min 0 min 0 W/m 6,4 km/h (2 Bft) 100,00 %
19.04.2023 06:07 10,1 C 9,4 C 6,1 C 87 % 1025,9 hPa 0,0 l/m 0 min 0 min 0 W/m 6,4 km/h (2 Bft) 100,00 %
19.04.2023 06:08 10,1 C 9,4 C 6,1 C 87 % 1025,9 hPa 0,0 l/m 0 min 0 min 0 W/m 6,4 km/h (2 Bft) 100,00 %
19.04.2023 06:12 10,1 C 9,4 C 6,1 C 87 % 1025,9 hPa 0,0 l/m 0 min 0 min 0 W/m 9,7 km/h (2 Bft) 98,28 %
19.04.2023 06:14 10,1 C 9,4 C 6,1 C 87 % 1025,9 hPa 0,0 l/m 0 min 0 min 0 W/m 9,7 km/h (2 Bft) 100,00 %
19.04.2023 06:16 10,1 C 9,4 C 6,1 C 86 % 1025,9 hPa 0,0 l/m 0 min 0 min 0 W/m 6,4 km/h (2 Bft) 95,74 %
19.04.2023 06:18 10,1 C 9,4 C 6,1 C 86 % 1025,8 hPa 0,0 l/m 0 min 0 min 0 W/m 12,9 km/h (3 Bft) 95,65 %
19.04.2023 06:20 10,1 C 9,4 C 6,1 C 86 % 1025,8 hPa 0,0 l/m 0 min 0 min 0 W/m 6,4 km/h (2 Bft) 95,74 %
19.04.2023 06:22 10,1 C 9,4 C 6,1 C 86 % 1025,8 hPa 0,0 l/m 0 min 0 min 0 W/m 6,4 km/h (2 Bft) 97,87 %
19.04.2023 06:24 10,1 C 9,4 C 6,1 C 86 % 1025,8 hPa 0,0 l/m 0 min 0 min 0 W/m 6,4 km/h (2 Bft) 97,87 %
19.04.2023 06:26 10,1 C 9,4 C 6,1 C 86 % 1025,8 hPa 0,0 l/m 0 min 0 min 0 W/m 9,7 km/h (2 Bft) 93,62 %
19.04.2023 06:28 10,1 C 9,4 C 6,1 C 86 % 1025,8 hPa 0,0 l/m 0 min 0 min 0 W/m 6,4 km/h (2 Bft) 93,62 %
19.04.2023 06:30 10,1 C 9,4 C 6,1 C 86 % 1025,8 hPa 0,0 l/m 0 min 0 min 0 W/m 9,7 km/h (2 Bft) 97,87 %
19.04.2023 06:32 10,1 C 9,4 C 6,1 C 86 % 1025,8 hPa 0,0 l/m 0 min 0 min 0 W/m 9,7 km/h (2 Bft) 95,65 %
19.04.2023 06:34 10,1 C 9,4 C 6,1 C 86 % 1025,8 hPa 0,0 l/m 0 min 0 min 0 W/m 6,4 km/h (2 Bft) 95,74 %
19.04.2023 06:36 10,0 C 9,4 C 6,1 C 86 % 1025,8 hPa 0,0 l/m 0 min 0 min 0 W/m 9,7 km/h (2 Bft) 97,87 %
19.04.2023 06:38 10,0 C 9,4 C 6,1 C 85 % 1025,8 hPa 0,0 l/m 0 min 0 min 0 W/m 6,4 km/h (2 Bft) 93,62 %
19.04.2023 06:40 10,0 C 9,4 C 6,1 C 85 % 1025,8 hPa 0,0 l/m 0 min 0 min 0 W/m 6,4 km/h (2 Bft) 95,74 %
19.04.2023 06:42 10,1 C 9,4 C 6,1 C 85 % 1025,8 hPa 0,0 l/m 0 min 0 min 0 W/m 6,4 km/h (2 Bft) 95,74 %
19.04.2023 06:44 10,1 C 9,4 C 6,1 C 85 % 1025,8 hPa 0,0 l/m 0 min 0 min 0 W/m 6,4 km/h (2 Bft) 95,65 %
19.04.2023 06:46 10,0 C 9,4 C 6,1 C 85 % 1025,8 hPa 0,0 l/m 0 min 0 min 0 W/m 6,4 km/h (2 Bft) 97,87 %
19.04.2023 06:48 10,0 C 9,4 C 6,1 C 85 % 1025,9 hPa 0,0 l/m 0 min 0 min 0 W/m 9,7 km/h (2 Bft) 97,87 %
19.04.2023 06:50 10,0 C 9,4 C 6,1 C 85 % 1025,9 hPa 0,0 l/m 0 min 0 min 0 W/m 9,7 km/h (2 Bft) 95,74 %
19.04.2023 06:52 10,0 C 9,4 C 6,1 C 85 % 1025,9 hPa 0,0 l/m 0 min 0 min 3 W/m 9,7 km/h (2 Bft) 95,74 %
19.04.2023 06:54 10,1 C 9,4 C 6,1 C 85 % 1025,9 hPa 0,0 l/m 0 min 0 min 5 W/m 6,4 km/h (2 Bft) 93,62 %
19.04.2023 06:56 10,1 C 9,4 C 6,1 C 85 % 1025,9 hPa 0,0 l/m 0 min 0 min 6 W/m 9,7 km/h (2 Bft) 95,74 %
19.04.2023 06:58 10,0 C 9,4 C 6,1 C 85 % 1025,9 hPa 0,0 l/m 0 min 0 min 7 W/m 9,7 km/h (2 Bft) 95,65 %
19.04.2023 07:00 10,1 C 9,4 C 6,1 C 85 % 1025,8 hPa 0,0 l/m 0 min 0 min 9 W/m 6,4 km/h (2 Bft) 95,74 %
19.04.2023 07:02 10,1 C 9,4 C 6,1 C 85 % 1025,9 hPa 0,0 l/m 0 min 0 min 11 W/m 12,9 km/h (3 Bft) 91,49 %
19.04.2023 07:04 10,1 C 9,4 C 6,1 C 84 % 1025,8 hPa 0,0 l/m 0 min 0 min 14 W/m 12,9 km/h (3 Bft) 95,74 %
19.04.2023 07:06 10,1 C 9,4 C 6,1 C 84 % 1025,8 hPa 0,0 l/m 0 min 0 min 23 W/m 9,7 km/h (2 Bft) 95,00 %
19.04.2023 07:08 10,1 C 9,4 C 6,1 C 84 % 1025,8 hPa 0,0 l/m 0 min 0 min 24 W/m 9,7 km/h (2 Bft) 97,14 %
19.04.2023 07:10 10,1 C 9,4 C 6,1 C 84 % 1025,9 hPa 0,0 l/m 0 min 0 min 21 W/m 6,4 km/h (2 Bft) 93,62 %
19.04.2023 07:12 10,1 C 9,4 C 6,1 C 84 % 1025,8 hPa 0,0 l/m 0 min 0 min 21 W/m 9,7 km/h (2 Bft) 93,48 %
19.04.2023 07:14 10,1 C 9,4 C 6,1 C 84 % 1025,8 hPa 0,0 l/m 0 min 0 min 27 W/m 16,1 km/h (3 Bft) 95,74 %
19.04.2023 07:16 10,1 C 9,4 C 6,1 C 84 % 1025,8 hPa 0,0 l/m 0 min 0 min 31 W/m 16,1 km/h (3 Bft) 97,87 %
19.04.2023 07:18 10,1 C 9,4 C 6,1 C 83 % 1025,8 hPa 0,0 l/m 0 min 0 min 32 W/m 6,4 km/h (2 Bft) 97,87 %
19.04.2023 07:20 10,1 C 9,4 C 6,1 C 83 % 1025,8 hPa 0,0 l/m 0 min 0 min 35 W/m 25,7 km/h (4 Bft) 97,87 %
19.04.2023 07:22 10,1 C 9,4 C 6,1 C 83 % 1025,7 hPa 0,0 l/m 0 min 0 min 31 W/m 12,9 km/h (3 Bft) 95,74 %
19.04.2023 07:24 10,1 C 9,4 C 5,6 C 83 % 1025,8 hPa 0,0 l/m 0 min 0 min 28 W/m 16,1 km/h (3 Bft) 95,65 %
19.04.2023 07:26 10,1 C 9,4 C 5,6 C 82 % 1025,7 hPa 0,0 l/m 0 min 0 min 27 W/m 25,7 km/h (4 Bft) 100,00 %
19.04.2023 07:28 10,0 C 9,4 C 5,6 C 82 % 1025,8 hPa 0,0 l/m 0 min 0 min 30 W/m 12,9 km/h (3 Bft) 93,62 %
19.04.2023 07:30 9,9 C 9,4 C 5,6 C 82 % 1025,8 hPa 0,0 l/m 0 min 0 min 32 W/m 19,3 km/h (3 Bft) 93,62 %
19.04.2023 07:32 9,9 C 9,4 C 5,6 C 81 % 1025,8 hPa 0,0 l/m 0 min 0 min 33 W/m 16,1 km/h (3 Bft) 97,87 %
19.04.2023 07:34 9,8 C 9,4 C 5,6 C 81 % 1025,8 hPa 0,0 l/m 0 min 0 min 33 W/m 29,0 km/h (5 Bft) 97,87 %
19.04.2023 07:36 9,8 C 9,4 C 5,6 C 80 % 1025,9 hPa 0,0 l/m 0 min 0 min 38 W/m 16,1 km/h (3 Bft) 97,87 %
19.04.2023 07:38 9,8 C 9,4 C 5,6 C 80 % 1025,9 hPa 0,0 l/m 0 min 0 min 43 W/m 16,1 km/h (3 Bft) 100,00 %
19.04.2023 07:40 9,8 C 9,4 C 5,6 C 80 % 1025,9 hPa 0,0 l/m 0 min 0 min 49 W/m 22,5 km/h (4 Bft) 97,87 %
19.04.2023 07:42 9,8 C 9,4 C 5,6 C 79 % 1025,9 hPa 0,0 l/m 0 min 0 min 54 W/m 19,3 km/h (3 Bft) 100,00 %
19.04.2023 07:44 9,8 C 9,4 C 5,6 C 79 % 1025,9 hPa 0,0 l/m 0 min 0 min 59 W/m 22,5 km/h (4 Bft) 100,00 %
19.04.2023 07:46 9,8 C 9,4 C 5,6 C 79 % 1025,9 hPa 0,0 l/m 0 min 0 min 60 W/m 25,7 km/h (4 Bft) 100,00 %
19.04.2023 07:48 9,8 C 9,4 C 5,6 C 79 % 1025,9 hPa 0,0 l/m 0 min 0 min 64 W/m 19,3 km/h (3 Bft) 97,87 %
19.04.2023 07:50 9,8 C 9,4 C 5,6 C 78 % 1025,9 hPa 0,0 l/m 0 min 0 min 74 W/m 25,7 km/h (4 Bft) 100,00 %
19.04.2023 07:52 9,8 C 10,0 C 6,1 C 78 % 1025,9 hPa 0,0 l/m 0 min 0 min 78 W/m 16,1 km/h (3 Bft) 100,00 %
19.04.2023 07:54 9,9 C 10,0 C 6,1 C 78 % 1025,9 hPa 0,0 l/m 0 min 0 min 80 W/m 19,3 km/h (3 Bft) 97,87 %
19.04.2023 07:56 9,9 C 10,0 C 6,1 C 78 % 1025,9 hPa 0,0 l/m 0 min 0 min 83 W/m 12,9 km/h (3 Bft) 100,00 %
19.04.2023 07:58 9,9 C 10,0 C 6,1 C 77 % 1025,9 hPa 0,0 l/m 0 min 0 min 82 W/m 16,1 km/h (3 Bft) 100,00 %
19.04.2023 08:00 9,9 C 10,0 C 6,1 C 78 % 1025,9 hPa 0,0 l/m 0 min 0 min 79 W/m 12,9 km/h (3 Bft) 100,00 %
19.04.2023 08:02 9,9 C 10,0 C 6,1 C 77 % 1025,9 hPa 0,0 l/m 0 min 0 min 77 W/m 25,7 km/h (4 Bft) 100,00 %
19.04.2023 08:04 9,9 C 10,0 C 6,1 C 77 % 1025,9 hPa 0,0 l/m 0 min 0 min 83 W/m 19,3 km/h (3 Bft) 100,00 %
19.04.2023 08:06 9,9 C 10,0 C 6,1 C 77 % 1025,9 hPa 0,0 l/m 0 min 0 min 82 W/m 35,4 km/h (5 Bft) 100,00 %
19.04.2023 08:08 10,0 C 10,0 C 6,1 C 77 % 1025,9 hPa 0,0 l/m 0 min 0 min 73 W/m 9,7 km/h (2 Bft) 100,00 %
19.04.2023 08:10 10,0 C 10,0 C 6,1 C 77 % 1025,8 hPa 0,0 l/m 0 min 0 min 65 W/m 12,9 km/h (3 Bft) 97,87 %
19.04.2023 08:12 10,0 C 10,0 C 6,1 C 77 % 1025,9 hPa 0,0 l/m 0 min 0 min 59 W/m 16,1 km/h (3 Bft) 97,87 %
19.04.2023 08:14 10,0 C 10,0 C 5,6 C 77 % 1025,8 hPa 0,0 l/m 0 min 0 min 54 W/m 12,9 km/h (3 Bft) 97,87 %
19.04.2023 08:16 10,0 C 10,0 C 5,6 C 77 % 1025,8 hPa 0,0 l/m 0 min 0 min 53 W/m 12,9 km/h (3 Bft) 97,87 %
19.04.2023 08:18 10,0 C 10,0 C 5,6 C 77 % 1025,9 hPa 0,0 l/m 0 min 0 min 54 W/m 16,1 km/h (3 Bft) 95,65 %
19.04.2023 08:20 10,0 C 10,0 C 5,6 C 77 % 1025,9 hPa 0,0 l/m 0 min 0 min 57 W/m 16,1 km/h (3 Bft) 97,87 %
19.04.2023 08:22 10,0 C 10,0 C 5,6 C 77 % 1025,9 hPa 0,0 l/m 0 min 0 min 57 W/m 12,9 km/h (3 Bft) 95,74 %
19.04.2023 08:24 10,0 C 10,0 C 5,6 C 77 % 1025,9 hPa 0,0 l/m 0 min 0 min 56 W/m 12,9 km/h (3 Bft) 97,87 %
19.04.2023 08:26 10,0 C 10,0 C 5,6 C 77 % 1025,8 hPa 0,0 l/m 0 min 0 min 56 W/m 12,9 km/h (3 Bft) 95,74 %
19.04.2023 08:28 10,0 C 10,0 C 5,6 C 77 % 1025,8 hPa 0,0 l/m 0 min 0 min 54 W/m 9,7 km/h (2 Bft) 95,74 %
19.04.2023 08:30 10,0 C 10,0 C 5,6 C 77 % 1025,8 hPa 0,0 l/m 0 min 0 min 54 W/m 32,2 km/h (5 Bft) 97,87 %
19.04.2023 08:32 10,1 C 10,0 C 5,6 C 76 % 1025,9 hPa 0,0 l/m 0 min 0 min 54 W/m 25,7 km/h (4 Bft) 97,83 %
19.04.2023 08:34 10,0 C 10,0 C 5,6 C 77 % 1025,8 hPa 0,0 l/m 0 min 0 min 54 W/m 16,1 km/h (3 Bft) 95,74 %
19.04.2023 08:36 10,1 C 10,0 C 6,1 C 77 % 1025,9 hPa 0,0 l/m 0 min 0 min 54 W/m 22,5 km/h (4 Bft) 95,74 %
19.04.2023 08:38 10,1 C 10,0 C 6,1 C 77 % 1025,9 hPa 0,0 l/m 0 min 0 min 54 W/m 16,1 km/h (3 Bft) 97,87 %
19.04.2023 08:40 10,1 C 10,0 C 6,1 C 77 % 1025,9 hPa 0,0 l/m 0 min 0 min 56 W/m 22,5 km/h (4 Bft) 100,00 %
19.04.2023 08:42 10,1 C 10,0 C 6,1 C 77 % 1025,9 hPa 0,0 l/m 0 min 0 min 76 W/m 19,3 km/h (3 Bft) 100,00 %
19.04.2023 08:44 10,1 C 10,0 C 6,1 C 77 % 1025,9 hPa 0,0 l/m 2 min 0 min 225 W/m 19,3 km/h (3 Bft) 97,87 %
19.04.2023 08:46 10,1 C 10,0 C 6,1 C 77 % 1025,8 hPa 0,0 l/m 2 min 0 min 291 W/m 19,3 km/h (3 Bft) 100,00 %
19.04.2023 08:48 10,2 C 10,0 C 6,1 C 77 % 1025,8 hPa 0,0 l/m 2 min 0 min 299 W/m 16,1 km/h (3 Bft) 100,00 %
19.04.2023 08:50 10,2 C 10,0 C 6,1 C 77 % 1025,9 hPa 0,0 l/m 2 min 0 min 307 W/m 22,5 km/h (4 Bft) 100,00 %
19.04.2023 08:52 10,2 C 10,0 C 6,1 C 77 % 1025,9 hPa 0,0 l/m 2 min 0 min 312 W/m 19,3 km/h (3 Bft) 100,00 %
19.04.2023 08:54 10,3 C 10,0 C 6,1 C 77 % 1025,9 hPa 0,0 l/m 2 min 0 min 317 W/m 12,9 km/h (3 Bft) 100,00 %
19.04.2023 08:56 10,3 C 10,0 C 6,1 C 77 % 1025,8 hPa 0,0 l/m 2 min 0 min 323 W/m 12,9 km/h (3 Bft) 97,87 %
19.04.2023 08:58 10,4 C 11,1 C 6,1 C 77 % 1025,8 hPa 0,0 l/m 2 min 0 min 328 W/m 19,3 km/h (3 Bft) 100,00 %
19.04.2023 09:00 10,4 C 12,8 C 6,1 C 77 % 1025,9 hPa 0,0 l/m 2 min 0 min 333 W/m 22,5 km/h (4 Bft) 100,00 %
19.04.2023 09:02 10,5 C 13,9 C 6,1 C 75 % 1025,9 hPa 0,0 l/m 2 min 0 min 339 W/m 19,3 km/h (3 Bft) 97,87 %
19.04.2023 09:04 10,6 C 14,4 C 6,1 C 75 % 1025,9 hPa 0,0 l/m 2 min 0 min 344 W/m 22,5 km/h (4 Bft) 100,00 %
19.04.2023 09:06 10,6 C 15,0 C 6,1 C 75 % 1025,9 hPa 0,0 l/m 2 min 0 min 350 W/m 22,5 km/h (4 Bft) 100,00 %
19.04.2023 09:08 10,7 C 16,1 C 6,1 C 75 % 1026,0 hPa 0,0 l/m 2 min 0 min 354 W/m 19,3 km/h (3 Bft) 100,00 %
19.04.2023 09:10 10,8 C 16,1 C 6,7 C 74 % 1026,0 hPa 0,0 l/m 2 min 0 min 367 W/m 16,1 km/h (3 Bft) 95,74 %
19.04.2023 09:12 10,9 C 16,1 C 6,7 C 74 % 1026,0 hPa 0,0 l/m 2 min 0 min 384 W/m 19,3 km/h (3 Bft) 97,83 %
19.04.2023 09:14 10,9 C 16,7 C 6,7 C 73 % 1026,0 hPa 0,0 l/m 2 min 0 min 390 W/m 19,3 km/h (3 Bft) 97,87 %
19.04.2023 09:16 11,1 C 17,2 C 6,7 C 72 % 1026,0 hPa 0,0 l/m 2 min 0 min 395 W/m 19,3 km/h (3 Bft) 97,87 %
19.04.2023 09:18 11,2 C 17,2 C 7,2 C 72 % 1026,0 hPa 0,0 l/m 2 min 0 min 396 W/m 22,5 km/h (4 Bft) 100,00 %
19.04.2023 09:20 11,2 C 16,7 C 7,2 C 71 % 1026,0 hPa 0,0 l/m 2 min 0 min 398 W/m 22,5 km/h (4 Bft) 97,87 %
19.04.2023 09:22 11,3 C 16,7 C 7,2 C 70 % 1026,0 hPa 0,0 l/m 2 min 0 min 404 W/m 22,5 km/h (4 Bft) 100,00 %
19.04.2023 09:26 11,3 C 16,7 C 7,2 C 69 % 1025,9 hPa 0,0 l/m 4 min 0 min 412 W/m 22,5 km/h (4 Bft) 100,00 %
19.04.2023 09:28 11,3 C 16,7 C 7,2 C 69 % 1025,9 hPa 0,0 l/m 2 min 0 min 422 W/m 22,5 km/h (4 Bft) 95,74 %
19.04.2023 09:30 11,4 C 17,2 C 7,2 C 69 % 1025,9 hPa 0,0 l/m 2 min 0 min 416 W/m 25,7 km/h (4 Bft) 95,74 %
19.04.2023 09:32 11,4 C 17,2 C 7,2 C 68 % 1025,9 hPa 0,0 l/m 2 min 0 min 426 W/m 19,3 km/h (3 Bft) 100,00 %
19.04.2023 09:34 11,5 C 18,3 C 7,2 C 69 % 1025,9 hPa 0,0 l/m 2 min 0 min 442 W/m 19,3 km/h (3 Bft) 95,65 %
19.04.2023 09:36 11,6 C 18,3 C 7,2 C 68 % 1025,9 hPa 0,0 l/m 2 min 0 min 452 W/m 9,7 km/h (2 Bft) 95,74 %
19.04.2023 09:38 11,6 C 18,3 C 7,2 C 67 % 1025,9 hPa 0,0 l/m 2 min 0 min 462 W/m 38,6 km/h (5 Bft) 93,62 %
19.04.2023 09:40 11,7 C 18,3 C 7,2 C 67 % 1025,9 hPa 0,0 l/m 2 min 0 min 465 W/m 19,3 km/h (3 Bft) 95,74 %
19.04.2023 09:42 11,7 C 17,8 C 7,2 C 66 % 1025,8 hPa 0,0 l/m 2 min 0 min 388 W/m 19,3 km/h (3 Bft) 93,62 %
19.04.2023 09:44 11,7 C 17,8 C 7,2 C 66 % 1025,9 hPa 0,0 l/m 0 min 0 min 82 W/m 19,3 km/h (3 Bft) 93,62 %
19.04.2023 09:46 11,7 C 17,8 C 7,2 C 66 % 1025,9 hPa 0,0 l/m 0 min 0 min 70 W/m 19,3 km/h (3 Bft) 91,49 %
19.04.2023 09:48 11,7 C 17,2 C 7,2 C 66 % 1025,9 hPa 0,0 l/m 0 min 0 min 94 W/m 22,5 km/h (4 Bft) 97,83 %
19.04.2023 09:50 11,8 C 17,2 C 7,2 C 65 % 1025,8 hPa 0,0 l/m 0 min 0 min 72 W/m 19,3 km/h (3 Bft) 93,62 %
19.04.2023 09:52 11,8 C 18,3 C 7,2 C 66 % 1025,9 hPa 0,0 l/m 0 min 0 min 72 W/m 19,3 km/h (3 Bft) 95,74 %
19.04.2023 09:54 11,9 C 18,9 C 7,2 C 65 % 1025,9 hPa 0,0 l/m 0 min 0 min 73 W/m 16,1 km/h (3 Bft) 94,74 %
19.04.2023 09:56 12,0 C 17,8 C 7,2 C 65 % 1025,9 hPa 0,0 l/m 0 min 0 min 82 W/m 22,5 km/h (4 Bft) 95,74 %
19.04.2023 09:58 12,1 C 18,3 C 7,8 C 64 % 1025,9 hPa 0,0 l/m 0 min 0 min 70 W/m 22,5 km/h (4 Bft) 95,74 %
19.04.2023 10:00 12,1 C 18,9 C 7,8 C 65 % 1025,9 hPa 0,0 l/m 0 min 0 min 70 W/m 16,1 km/h (3 Bft) 95,74 %
19.04.2023 10:02 12,2 C 18,9 C 7,8 C 65 % 1025,8 hPa 0,0 l/m 0 min 0 min 76 W/m 22,5 km/h (4 Bft) 95,74 %
19.04.2023 10:04 12,3 C 18,9 C 7,8 C 65 % 1025,9 hPa 0,0 l/m 0 min 0 min 130 W/m 12,9 km/h (3 Bft) 95,74 %
19.04.2023 10:06 12,3 C 18,3 C 7,8 C 63 % 1025,8 hPa 0,0 l/m 0 min 0 min 83 W/m 19,3 km/h (3 Bft) 93,62 %
19.04.2023 10:08 12,4 C 17,8 C 7,8 C 63 % 1025,8 hPa 0,0 l/m 0 min 0 min 101 W/m 19,3 km/h (3 Bft) 95,74 %
19.04.2023 10:10 12,4 C 18,9 C 8,3 C 64 % 1025,8 hPa 0,0 l/m 0 min 0 min 83 W/m 16,1 km/h (3 Bft) 93,62 %
19.04.2023 10:12 12,6 C 18,9 C 8,3 C 64 % 1025,8 hPa 0,0 l/m 0 min 0 min 69 W/m 16,1 km/h (3 Bft) 93,62 %
19.04.2023 10:14 12,7 C 18,3 C 8,3 C 64 % 1025,8 hPa 0,0 l/m 0 min 0 min 89 W/m 19,3 km/h (3 Bft) 93,62 %
19.04.2023 10:16 12,7 C 18,9 C 8,3 C 64 % 1025,8 hPa 0,0 l/m 0 min 0 min 91 W/m 25,7 km/h (4 Bft) 93,62 %
19.04.2023 10:18 12,7 C 18,3 C 8,3 C 63 % 1025,8 hPa 0,0 l/m 0 min 0 min 77 W/m 25,7 km/h (4 Bft) 91,30 %
19.04.2023 10:20 12,7 C 17,2 C 8,3 C 62 % 1025,7 hPa 0,0 l/m 0 min 0 min 102 W/m 29,0 km/h (5 Bft) 91,49 %
19.04.2023 10:22 12,8 C 16,7 C 8,3 C 63 % 1025,7 hPa 0,0 l/m 0 min 0 min 82 W/m 22,5 km/h (4 Bft) 91,49 %
19.04.2023 10:24 12,8 C 15,6 C 8,3 C 62 % 1025,8 hPa 0,0 l/m 0 min 0 min 77 W/m 22,5 km/h (4 Bft) 93,62 %
19.04.2023 10:26 12,8 C 16,1 C 8,3 C 62 % 1025,8 hPa 0,0 l/m 0 min 0 min 77 W/m 25,7 km/h (4 Bft) 93,62 %
19.04.2023 10:28 12,9 C 16,1 C 8,9 C 62 % 1025,8 hPa 0,0 l/m 2 min 0 min 559 W/m 16,1 km/h (3 Bft) 95,74 %
19.04.2023 10:30 12,9 C 16,1 C 8,9 C 62 % 1025,8 hPa 0,0 l/m 2 min 0 min 609 W/m 19,3 km/h (3 Bft) 95,65 %
19.04.2023 10:32 13,0 C 15,6 C 8,9 C 62 % 1025,8 hPa 0,0 l/m 2 min 0 min 606 W/m 16,1 km/h (3 Bft) 95,74 %
19.04.2023 10:34 13,1 C 15,6 C 8,9 C 62 % 1025,8 hPa 0,0 l/m 2 min 0 min 609 W/m 19,3 km/h (3 Bft) 95,74 %
19.04.2023 10:36 13,1 C 15,0 C 8,9 C 61 % 1025,8 hPa 0,0 l/m 2 min 0 min 613 W/m 16,1 km/h (3 Bft) 97,87 %
19.04.2023 10:38 13,1 C 15,6 C 9,4 C 61 % 1025,8 hPa 0,0 l/m 2 min 0 min 613 W/m 12,9 km/h (3 Bft) 93,62 %
19.04.2023 10:40 13,1 C 16,1 C 9,4 C 61 % 1025,7 hPa 0,0 l/m 2 min 0 min 613 W/m 16,1 km/h (3 Bft) 95,74 %
19.04.2023 10:42 13,2 C 16,7 C 9,4 C 61 % 1025,7 hPa 0,0 l/m 2 min 0 min 593 W/m 16,1 km/h (3 Bft) 93,48 %
19.04.2023 10:44 13,2 C 16,7 C 9,4 C 61 % 1025,7 hPa 0,0 l/m 2 min 0 min 531 W/m 16,1 km/h (3 Bft) 97,87 %
19.04.2023 10:46 13,2 C 16,7 C 8,9 C 61 % 1025,8 hPa 0,0 l/m 0 min 0 min 124 W/m 29,0 km/h (5 Bft) 93,62 %
19.04.2023 10:48 13,2 C 16,1 C 8,9 C 60 % 1025,7 hPa 0,0 l/m 0 min 0 min 86 W/m 19,3 km/h (3 Bft) 95,74 %
19.04.2023 10:50 13,2 C 16,1 C 8,9 C 61 % 1025,7 hPa 0,0 l/m 0 min 0 min 90 W/m 12,9 km/h (3 Bft) 95,74 %
19.04.2023 10:52 13,2 C 15,6 C 8,9 C 60 % 1025,7 hPa 0,0 l/m 0 min 0 min 95 W/m 22,5 km/h (4 Bft) 97,87 %
19.04.2023 10:54 13,2 C 16,1 C 8,9 C 60 % 1025,8 hPa 0,0 l/m 0 min 0 min 114 W/m 16,1 km/h (3 Bft) 97,87 %
19.04.2023 10:56 13,2 C 16,1 C 8,9 C 59 % 1025,7 hPa 0,0 l/m 0 min 0 min 114 W/m 29,0 km/h (5 Bft) 95,65 %
19.04.2023 10:58 13,3 C 16,7 C 8,9 C 59 % 1025,7 hPa 0,0 l/m 0 min 0 min 237 W/m 22,5 km/h (4 Bft) 97,87 %
19.04.2023 11:00 13,3 C 17,2 C 8,9 C 60 % 1025,7 hPa 0,0 l/m 2 min 0 min 679 W/m 16,1 km/h (3 Bft) 97,87 %
19.04.2023 11:02 13,3 C 16,7 C 8,9 C 59 % 1025,7 hPa 0,0 l/m 2 min 0 min 640 W/m 22,5 km/h (4 Bft) 97,87 %
19.04.2023 11:04 13,3 C 15,6 C 8,9 C 58 % 1025,7 hPa 0,0 l/m 2 min 0 min 659 W/m 29,0 km/h (5 Bft) 97,96 %
19.04.2023 11:06 13,3 C 15,6 C 8,9 C 59 % 1025,6 hPa 0,0 l/m 2 min 0 min 670 W/m 16,1 km/h (3 Bft) 97,87 %
19.04.2023 11:08 13,3 C 15,6 C 8,9 C 59 % 1025,6 hPa 0,0 l/m 2 min 0 min 683 W/m 16,1 km/h (3 Bft) 97,83 %
19.04.2023 11:10 13,3 C 15,0 C 9,4 C 59 % 1025,7 hPa 0,0 l/m 2 min 0 min 689 W/m 25,7 km/h (4 Bft) 97,87 %
19.04.2023 11:12 13,3 C 15,0 C 9,4 C 58 % 1025,6 hPa 0,0 l/m 2 min 0 min 689 W/m 16,1 km/h (3 Bft) 97,87 %
19.04.2023 11:14 13,3 C 15,6 C 9,4 C 59 % 1025,6 hPa 0,0 l/m 2 min 0 min 690 W/m 16,1 km/h (3 Bft) 97,87 %
19.04.2023 11:16 13,4 C 15,0 C 9,4 C 59 % 1025,6 hPa 0,0 l/m 2 min 0 min 689 W/m 32,2 km/h (5 Bft) 95,74 %
19.04.2023 11:18 13,3 C 15,0 C 9,4 C 57 % 1025,6 hPa 0,0 l/m 2 min 0 min 702 W/m 35,4 km/h (5 Bft) 91,49 %
19.04.2023 11:20 13,3 C 15,0 C 8,9 C 56 % 1025,6 hPa 0,0 l/m 2 min 0 min 714 W/m 22,5 km/h (4 Bft) 97,83 %
19.04.2023 11:22 13,3 C 15,0 C 9,4 C 56 % 1025,5 hPa 0,0 l/m 2 min 0 min 715 W/m 25,7 km/h (4 Bft) 97,87 %
19.04.2023 11:24 13,2 C 16,1 C 9,4 C 56 % 1025,6 hPa 0,0 l/m 2 min 0 min 724 W/m 22,5 km/h (4 Bft) 95,74 %
19.04.2023 11:26 13,2 C 17,8 C 9,4 C 56 % 1025,6 hPa 0,0 l/m 2 min 0 min 726 W/m 22,5 km/h (4 Bft) 93,62 %
19.04.2023 11:28 13,3 C 18,3 C 9,4 C 57 % 1025,6 hPa 0,0 l/m 2 min 0 min 724 W/m 35,4 km/h (5 Bft) 95,74 %
19.04.2023 11:30 13,4 C 18,9 C 9,4 C 58 % 1025,6 hPa 0,0 l/m 2 min 0 min 726 W/m 22,5 km/h (4 Bft) 100,00 %
19.04.2023 11:32 13,4 C 18,9 C 9,4 C 59 % 1025,5 hPa 0,0 l/m 2 min 0 min 730 W/m 32,2 km/h (5 Bft) 100,00 %
19.04.2023 11:34 13,6 C 19,4 C 10,0 C 59 % 1025,5 hPa 0,0 l/m 2 min 0 min 729 W/m 22,5 km/h (4 Bft) 100,00 %
19.04.2023 11:36 13,6 C 20,0 C 10,0 C 59 % 1025,5 hPa 0,0 l/m 2 min 0 min 729 W/m 16,1 km/h (3 Bft) 100,00 %
19.04.2023 11:38 13,7 C 18,9 C 10,0 C 57 % 1025,5 hPa 0,0 l/m 2 min 0 min 732 W/m 19,3 km/h (3 Bft) 100,00 %
19.04.2023 11:40 13,7 C 17,8 C 10,0 C 57 % 1025,5 hPa 0,0 l/m 2 min 0 min 732 W/m 25,7 km/h (4 Bft) 100,00 %
19.04.2023 11:42 13,7 C 17,2 C 10,0 C 55 % 1025,5 hPa 0,0 l/m 2 min 0 min 747 W/m 25,7 km/h (4 Bft) 100,00 %
19.04.2023 11:44 13,8 C 16,7 C 10,6 C 57 % 1025,6 hPa 0,0 l/m 2 min 0 min 741 W/m 25,7 km/h (4 Bft) 100,00 %
19.04.2023 11:46 13,7 C 16,7 C 10,6 C 56 % 1025,5 hPa 0,0 l/m 2 min 0 min 749 W/m 22,5 km/h (4 Bft) 100,00 %
19.04.2023 11:48 13,7 C 16,7 C 11,1 C 57 % 1025,4 hPa 0,0 l/m 2 min 0 min 747 W/m 16,1 km/h (3 Bft) 97,87 %
19.04.2023 11:50 13,7 C 16,7 C 11,7 C 57 % 1025,5 hPa 0,0 l/m 2 min 0 min 734 W/m 19,3 km/h (3 Bft) 100,00 %
19.04.2023 11:52 13,7 C 16,1 C 11,7 C 56 % 1025,5 hPa 0,0 l/m 2 min 0 min 746 W/m 25,7 km/h (4 Bft) 97,87 %
19.04.2023 11:54 13,8 C 16,7 C 11,7 C 56 % 1025,4 hPa 0,0 l/m 2 min 0 min 754 W/m 25,7 km/h (4 Bft) 100,00 %
19.04.2023 11:56 13,8 C 18,3 C 11,7 C 56 % 1025,4 hPa 0,0 l/m 2 min 0 min 766 W/m 22,5 km/h (4 Bft) 100,00 %
19.04.2023 11:58 13,8 C 20,0 C 12,2 C 56 % 1025,4 hPa 0,0 l/m 2 min 0 min 755 W/m 16,1 km/h (3 Bft) 100,00 %
19.04.2023 12:00 13,9 C 21,1 C 12,8 C 57 % 1025,4 hPa 0,0 l/m 2 min 0 min 770 W/m 16,1 km/h (3 Bft) 97,83 %
19.04.2023 12:02 14,0 C 22,2 C 12,8 C 56 % 1025,4 hPa 0,0 l/m 2 min 0 min 772 W/m 25,7 km/h (4 Bft) 100,00 %
19.04.2023 12:04 14,1 C 22,2 C 12,2 C 53 % 1025,3 hPa 0,0 l/m 2 min 0 min 767 W/m 25,7 km/h (4 Bft) 97,87 %
19.04.2023 12:07 14,0 C 21,7 C 12,2 C 52 % 1025,3 hPa 0,0 l/m 3 min 0 min 770 W/m 25,7 km/h (4 Bft) 97,37 %
19.04.2023 12:08 14,0 C 22,2 C 12,2 C 53 % 1025,3 hPa 0,0 l/m 1 min 0 min 751 W/m 12,9 km/h (3 Bft) 100,00 %
19.04.2023 12:12 14,2 C 23,3 C 12,8 C 52 % 1025,3 hPa 0,0 l/m 4 min 0 min 773 W/m 19,3 km/h (3 Bft) 98,15 %
19.04.2023 12:14 14,3 C 23,9 C 12,8 C 52 % 1025,3 hPa 0,0 l/m 2 min 0 min 802 W/m 19,3 km/h (3 Bft) 97,87 %
19.04.2023 12:16 14,3 C 25,0 C 13,3 C 53 % 1025,3 hPa 0,0 l/m 2 min 0 min 799 W/m 19,3 km/h (3 Bft) 97,87 %
19.04.2023 12:18 14,3 C 23,9 C 12,8 C 52 % 1025,4 hPa 0,0 l/m 2 min 0 min 787 W/m 22,5 km/h (4 Bft) 97,87 %
19.04.2023 12:20 14,3 C 22,8 C 12,2 C 50 % 1025,3 hPa 0,0 l/m 2 min 0 min 785 W/m 25,7 km/h (4 Bft) 97,87 %
19.04.2023 12:22 14,3 C 22,2 C 12,2 C 50 % 1025,3 hPa 0,0 l/m 2 min 0 min 806 W/m 41,8 km/h (6 Bft) 100,00 %
19.04.2023 12:24 14,3 C 22,2 C 12,2 C 51 % 1025,3 hPa 0,0 l/m 2 min 0 min 811 W/m 32,2 km/h (5 Bft) 95,74 %
19.04.2023 12:26 14,3 C 22,2 C 12,2 C 51 % 1025,2 hPa 0,0 l/m 2 min 0 min 817 W/m 22,5 km/h (4 Bft) 98,00 %
19.04.2023 12:28 14,3 C 22,2 C 12,2 C 51 % 1025,2 hPa 0,0 l/m 2 min 0 min 811 W/m 25,7 km/h (4 Bft) 97,87 %
19.04.2023 12:30 14,3 C 22,8 C 12,8 C 51 % 1025,1 hPa 0,0 l/m 2 min 0 min 807 W/m 25,7 km/h (4 Bft) 95,83 %
19.04.2023 12:32 14,3 C 21,1 C 13,3 C 49 % 1025,1 hPa 0,0 l/m 2 min 0 min 817 W/m 25,7 km/h (4 Bft) 97,87 %
19.04.2023 12:34 14,3 C 22,2 C 13,9 C 50 % 1025,1 hPa 0,0 l/m 2 min 0 min 852 W/m 25,7 km/h (4 Bft) 97,87 %
19.04.2023 12:36 14,3 C 22,8 C 13,9 C 49 % 1025,0 hPa 0,0 l/m 2 min 0 min 854 W/m 19,3 km/h (3 Bft) 100,00 %
19.04.2023 12:38 14,3 C 23,3 C 14,4 C 49 % 1025,0 hPa 0,0 l/m 2 min 0 min 849 W/m 29,0 km/h (5 Bft) 97,87 %
19.04.2023 12:40 14,3 C 22,8 C 14,4 C 48 % 1025,0 hPa 0,0 l/m 2 min 0 min 839 W/m 22,5 km/h (4 Bft) 97,87 %
19.04.2023 12:42 14,4 C 23,3 C 14,4 C 49 % 1025,0 hPa 0,0 l/m 2 min 0 min 855 W/m 29,0 km/h (5 Bft) 93,62 %
19.04.2023 12:44 14,4 C 22,2 C 14,4 C 49 % 1025,1 hPa 0,0 l/m 2 min 0 min 829 W/m 32,2 km/h (5 Bft) 97,87 %
19.04.2023 12:46 14,4 C 21,1 C 13,9 C 47 % 1025,1 hPa 0,0 l/m 2 min 0 min 816 W/m 41,8 km/h (6 Bft) 97,87 %
19.04.2023 12:48 14,3 C 20,6 C 12,8 C 47 % 1025,1 hPa 0,0 l/m 2 min 0 min 819 W/m 41,8 km/h (6 Bft) 97,83 %
19.04.2023 12:50 14,3 C 21,7 C 12,2 C 48 % 1025,1 hPa 0,0 l/m 2 min 0 min 817 W/m 19,3 km/h (3 Bft) 97,87 %
19.04.2023 12:52 14,3 C 22,8 C 12,2 C 49 % 1025,1 hPa 0,0 l/m 2 min 0 min 813 W/m 16,1 km/h (3 Bft) 97,87 %
19.04.2023 12:54 14,4 C 22,8 C 11,7 C 48 % 1025,0 hPa 0,0 l/m 2 min 0 min 802 W/m 35,4 km/h (5 Bft) 98,04 %
19.04.2023 12:56 14,4 C 21,1 C 11,1 C 48 % 1025,0 hPa 0,0 l/m 2 min 0 min 801 W/m 35,4 km/h (5 Bft) 97,87 %
19.04.2023 12:58 14,4 C 22,2 C 11,1 C 48 % 1025,1 hPa 0,0 l/m 2 min 0 min 800 W/m 16,1 km/h (3 Bft) 95,74 %
19.04.2023 13:00 14,4 C 21,7 C 11,1 C 48 % 1025,0 hPa 0,0 l/m 2 min 0 min 799 W/m 32,2 km/h (5 Bft) 97,87 %
19.04.2023 13:02 14,4 C 21,1 C 10,6 C 47 % 1025,1 hPa 0,0 l/m 2 min 0 min 818 W/m 38,6 km/h (5 Bft) 97,87 %
19.04.2023 13:04 14,4 C 21,7 C 10,6 C 48 % 1025,0 hPa 0,0 l/m 2 min 0 min 829 W/m 19,3 km/h (3 Bft) 97,92 %
19.04.2023 13:06 14,4 C 21,7 C 10,6 C 48 % 1025,0 hPa 0,0 l/m 2 min 0 min 837 W/m 25,7 km/h (4 Bft) 97,87 %
19.04.2023 13:08 14,5 C 21,7 C 10,6 C 48 % 1025,0 hPa 0,0 l/m 2 min 0 min 820 W/m 19,3 km/h (3 Bft) 97,87 %
19.04.2023 13:10 14,5 C 21,1 C 10,6 C 48 % 1025,0 hPa 0,0 l/m 2 min 0 min 841 W/m 25,7 km/h (4 Bft) 97,87 %
19.04.2023 13:12 14,6 C 22,2 C 10,6 C 49 % 1025,0 hPa 0,0 l/m 2 min 0 min 804 W/m 16,1 km/h (3 Bft) 97,83 %
19.04.2023 13:14 14,6 C 21,7 C 10,6 C 47 % 1024,9 hPa 0,0 l/m 2 min 0 min 762 W/m 25,7 km/h (4 Bft) 95,74 %
19.04.2023 13:16 14,6 C 21,1 C 10,6 C 48 % 1024,9 hPa 0,0 l/m 2 min 0 min 690 W/m 22,5 km/h (4 Bft) 95,74 %
19.04.2023 13:18 14,6 C 21,1 C 10,6 C 48 % 1024,8 hPa 0,0 l/m 2 min 0 min 733 W/m 22,5 km/h (4 Bft) 97,87 %
19.04.2023 13:20 14,5 C 21,7 C 10,6 C 48 % 1024,9 hPa 0,0 l/m 2 min 0 min 792 W/m 22,5 km/h (4 Bft) 97,87 %
19.04.2023 13:22 14,5 C 20,6 C 10,6 C 49 % 1024,9 hPa 0,0 l/m 2 min 0 min 766 W/m 22,5 km/h (4 Bft) 97,87 %
19.04.2023 13:24 14,5 C 21,1 C 10,6 C 50 % 1024,9 hPa 0,0 l/m 2 min 0 min 770 W/m 22,5 km/h (4 Bft) 97,83 %
19.04.2023 13:26 14,6 C 22,2 C 11,1 C 50 % 1024,8 hPa 0,0 l/m 2 min 0 min 826 W/m 16,1 km/h (3 Bft) 95,74 %
19.04.2023 13:28 14,7 C 22,2 C 11,7 C 50 % 1024,9 hPa 0,0 l/m 2 min 0 min 972 W/m 38,6 km/h (5 Bft) 97,87 %
19.04.2023 13:30 14,8 C 19,4 C 11,1 C 48 % 1024,9 hPa 0,0 l/m 2 min 0 min 694 W/m 29,0 km/h (5 Bft) 97,87 %
19.04.2023 13:32 14,8 C 19,4 C 11,1 C 49 % 1024,8 hPa 0,0 l/m 2 min 0 min 422 W/m 29,0 km/h (5 Bft) 97,87 %
19.04.2023 13:34 14,7 C 18,9 C 10,6 C 49 % 1024,7 hPa 0,0 l/m 2 min 0 min 578 W/m 25,7 km/h (4 Bft) 100,00 %
19.04.2023 13:36 14,6 C 20,0 C 10,6 C 49 % 1024,8 hPa 0,0 l/m 2 min 0 min 406 W/m 12,9 km/h (3 Bft) 100,00 %
19.04.2023 13:38 14,6 C 18,9 C 11,1 C 50 % 1024,7 hPa 0,0 l/m 2 min 0 min 477 W/m 22,5 km/h (4 Bft) 100,00 %
19.04.2023 13:40 14,6 C 20,0 C 11,1 C 50 % 1024,7 hPa 0,0 l/m 2 min 0 min 478 W/m 25,7 km/h (4 Bft) 100,00 %
19.04.2023 13:42 14,5 C 19,4 C 11,7 C 49 % 1024,6 hPa 0,0 l/m 2 min 0 min 843 W/m 32,2 km/h (5 Bft) 100,00 %
19.04.2023 13:44 14,4 C 19,4 C 11,1 C 50 % 1024,7 hPa 0,0 l/m 2 min 0 min 542 W/m 22,5 km/h (4 Bft) 97,87 %
19.04.2023 13:46 14,4 C 20,0 C 11,1 C 50 % 1024,6 hPa 0,0 l/m 2 min 0 min 556 W/m 16,1 km/h (3 Bft) 100,00 %
19.04.2023 13:48 14,4 C 21,1 C 11,1 C 50 % 1024,6 hPa 0,0 l/m 2 min 0 min 545 W/m 16,1 km/h (3 Bft) 97,87 %
19.04.2023 13:50 14,5 C 20,6 C 11,1 C 50 % 1024,6 hPa 0,0 l/m 2 min 0 min 719 W/m 22,5 km/h (4 Bft) 100,00 %
19.04.2023 13:52 14,6 C 21,7 C 11,1 C 50 % 1024,5 hPa 0,0 l/m 2 min 0 min 819 W/m 22,5 km/h (4 Bft) 97,87 %
19.04.2023 13:54 14,7 C 23,3 C 11,1 C 51 % 1024,7 hPa 0,0 l/m 2 min 0 min 856 W/m 19,3 km/h (3 Bft) 97,87 %
19.04.2023 13:56 14,8 C 24,4 C 11,1 C 51 % 1024,5 hPa 0,0 l/m 2 min 0 min 947 W/m 19,3 km/h (3 Bft) 97,87 %
19.04.2023 13:58 15,0 C 24,4 C 11,1 C 51 % 1024,5 hPa 0,0 l/m 2 min 0 min 870 W/m 19,3 km/h (3 Bft) 97,87 %
19.04.2023 14:00 15,1 C 23,9 C 11,1 C 51 % 1024,4 hPa 0,0 l/m 2 min 0 min 666 W/m 29,0 km/h (5 Bft) 97,87 %
19.04.2023 14:02 15,1 C 23,3 C 11,1 C 50 % 1024,4 hPa 0,0 l/m 2 min 0 min 738 W/m 19,3 km/h (3 Bft) 95,65 %
19.04.2023 14:04 15,2 C 23,3 C 11,1 C 51 % 1024,4 hPa 0,0 l/m 2 min 0 min 881 W/m 19,3 km/h (3 Bft) 97,87 %
19.04.2023 14:06 15,2 C 23,3 C 11,1 C 49 % 1024,3 hPa 0,0 l/m 2 min 0 min 928 W/m 22,5 km/h (4 Bft) 97,87 %
19.04.2023 14:08 15,3 C 23,9 C 11,1 C 49 % 1024,3 hPa 0,0 l/m 2 min 0 min 968 W/m 16,1 km/h (3 Bft) 93,62 %
19.04.2023 14:10 15,4 C 22,2 C 11,1 C 49 % 1024,3 hPa 0,0 l/m 2 min 0 min 981 W/m 22,5 km/h (4 Bft) 97,87 %
19.04.2023 14:12 15,4 C 22,8 C 11,1 C 48 % 1024,3 hPa 0,0 l/m 2 min 0 min 981 W/m 22,5 km/h (4 Bft) 97,87 %
19.04.2023 14:14 15,4 C 23,3 C 11,1 C 49 % 1024,3 hPa 0,0 l/m 2 min 0 min 977 W/m 16,1 km/h (3 Bft) 95,74 %
19.04.2023 14:16 15,5 C 22,8 C 11,1 C 49 % 1024,3 hPa 0,0 l/m 2 min 0 min 671 W/m 12,9 km/h (3 Bft) 97,83 %
19.04.2023 14:18 15,6 C 23,3 C 11,1 C 49 % 1024,4 hPa 0,0 l/m 2 min 0 min 941 W/m 25,7 km/h (4 Bft) 97,87 %
19.04.2023 14:20 15,5 C 22,2 C 11,1 C 48 % 1024,3 hPa 0,0 l/m 2 min 0 min 937 W/m 29,0 km/h (5 Bft) 95,74 %
19.04.2023 14:22 15,4 C 20,6 C 11,1 C 47 % 1024,3 hPa 0,0 l/m 2 min 0 min 916 W/m 32,2 km/h (5 Bft) 97,87 %
19.04.2023 14:24 15,3 C 20,6 C 10,6 C 46 % 1024,3 hPa 0,0 l/m 2 min 0 min 883 W/m 32,2 km/h (5 Bft) 100,00 %
19.04.2023 14:26 15,2 C 20,6 C 10,6 C 47 % 1024,2 hPa 0,0 l/m 2 min 0 min 874 W/m 35,4 km/h (5 Bft) 95,74 %
19.04.2023 14:28 15,3 C 22,8 C 11,1 C 49 % 1024,2 hPa 0,0 l/m 2 min 0 min 909 W/m 22,5 km/h (4 Bft) 100,00 %
19.04.2023 14:30 15,4 C 23,3 C 11,1 C 48 % 1024,2 hPa 0,0 l/m 2 min 0 min 817 W/m 29,0 km/h (5 Bft) 97,83 %
19.04.2023 14:32 15,6 C 23,9 C 11,7 C 48 % 1024,2 hPa 0,0 l/m 2 min 0 min 755 W/m 22,5 km/h (4 Bft) 97,87 %
19.04.2023 14:34 15,7 C 23,9 C 11,7 C 47 % 1024,1 hPa 0,0 l/m 2 min 0 min 944 W/m 22,5 km/h (4 Bft) 100,00 %
19.04.2023 14:36 15,8 C 25,0 C 11,7 C 48 % 1024,1 hPa 0,0 l/m 2 min 0 min 936 W/m 16,1 km/h (3 Bft) 100,00 %
19.04.2023 14:38 15,9 C 23,9 C 11,7 C 48 % 1024,1 hPa 0,0 l/m 2 min 0 min 889 W/m 19,3 km/h (3 Bft) 97,87 %
19.04.2023 14:40 15,9 C 22,2 C 11,7 C 49 % 1024,1 hPa 0,0 l/m 2 min 0 min 609 W/m 16,1 km/h (3 Bft) 100,00 %
19.04.2023 14:42 15,9 C 21,7 C 11,1 C 48 % 1024,1 hPa 0,0 l/m 2 min 0 min 383 W/m 16,1 km/h (3 Bft) 100,00 %
19.04.2023 14:44 15,8 C 21,1 C 11,1 C 47 % 1024,0 hPa 0,0 l/m 2 min 0 min 546 W/m 19,3 km/h (3 Bft) 97,83 %
19.04.2023 14:46 15,7 C 21,7 C 11,1 C 47 % 1024,0 hPa 0,0 l/m 2 min 0 min 675 W/m 16,1 km/h (3 Bft) 97,87 %
19.04.2023 14:48 15,6 C 21,7 C 11,1 C 47 % 1024,0 hPa 0,0 l/m 2 min 0 min 681 W/m 29,0 km/h (5 Bft) 100,00 %
19.04.2023 14:50 15,5 C 21,7 C 11,1 C 46 % 1024,0 hPa 0,0 l/m 2 min 0 min 692 W/m 38,6 km/h (5 Bft) 93,62 %
19.04.2023 14:52 15,4 C 21,7 C 11,1 C 47 % 1023,9 hPa 0,0 l/m 2 min 0 min 725 W/m 16,1 km/h (3 Bft) 100,00 %
19.04.2023 14:54 15,4 C 21,7 C 11,1 C 46 % 1023,9 hPa 0,0 l/m 2 min 0 min 727 W/m 35,4 km/h (5 Bft) 100,00 %
19.04.2023 14:56 15,5 C 21,7 C 11,1 C 47 % 1023,9 hPa 0,0 l/m 2 min 0 min 792 W/m 25,7 km/h (4 Bft) 97,22 %
19.04.2023 14:58 15,6 C 22,2 C 11,7 C 47 % 1023,9 hPa 0,0 l/m 2 min 0 min 821 W/m 19,3 km/h (3 Bft) 97,87 %
19.04.2023 15:00 15,7 C 22,8 C 11,7 C 48 % 1023,9 hPa 0,0 l/m 2 min 0 min 816 W/m 19,3 km/h (3 Bft) 100,00 %
19.04.2023 15:02 15,9 C 23,9 C 11,7 C 48 % 1023,8 hPa 0,0 l/m 2 min 0 min 813 W/m 9,7 km/h (2 Bft) 97,87 %
19.04.2023 15:04 15,9 C 24,4 C 11,7 C 46 % 1023,7 hPa 0,0 l/m 2 min 0 min 811 W/m 19,3 km/h (3 Bft) 97,92 %
19.04.2023 15:06 16,0 C 23,9 C 11,7 C 45 % 1023,7 hPa 0,0 l/m 2 min 0 min 786 W/m 19,3 km/h (3 Bft) 98,15 %
19.04.2023 15:08 16,1 C 23,3 C 11,7 C 44 % 1023,7 hPa 0,0 l/m 2 min 0 min 750 W/m 25,7 km/h (4 Bft) 97,87 %
19.04.2023 15:10 16,1 C 22,8 C 11,7 C 44 % 1023,7 hPa 0,0 l/m 2 min 0 min 800 W/m 19,3 km/h (3 Bft) 97,83 %
19.04.2023 15:12 16,0 C 23,3 C 11,7 C 44 % 1023,7 hPa 0,0 l/m 2 min 0 min 800 W/m 22,5 km/h (4 Bft) 97,87 %
19.04.2023 15:14 16,0 C 23,3 C 11,7 C 45 % 1023,7 hPa 0,0 l/m 2 min 0 min 798 W/m 29,0 km/h (5 Bft) 95,74 %
19.04.2023 15:16 16,1 C 23,3 C 11,7 C 46 % 1023,7 hPa 0,0 l/m 2 min 0 min 795 W/m 25,7 km/h (4 Bft) 95,74 %
19.04.2023 15:18 16,1 C 22,8 C 11,7 C 45 % 1023,6 hPa 0,0 l/m 2 min 0 min 792 W/m 25,7 km/h (4 Bft) 97,87 %
19.04.2023 15:20 16,2 C 23,9 C 11,7 C 46 % 1023,5 hPa 0,0 l/m 2 min 0 min 782 W/m 22,5 km/h (4 Bft) 93,62 %
19.04.2023 15:22 16,2 C 23,3 C 12,2 C 47 % 1023,6 hPa 0,0 l/m 2 min 0 min 780 W/m 22,5 km/h (4 Bft) 97,50 %
19.04.2023 15:24 16,2 C 22,8 C 11,7 C 46 % 1023,6 hPa 0,0 l/m 2 min 0 min 774 W/m 19,3 km/h (3 Bft) 97,87 %
19.04.2023 15:26 16,3 C 22,8 C 12,2 C 46 % 1023,6 hPa 0,0 l/m 2 min 0 min 776 W/m 19,3 km/h (3 Bft) 95,74 %
19.04.2023 15:28 16,3 C 23,3 C 12,2 C 46 % 1023,5 hPa 0,0 l/m 2 min 0 min 777 W/m 22,5 km/h (4 Bft) 95,74 %
19.04.2023 15:30 16,3 C 22,8 C 12,2 C 45 % 1023,5 hPa 0,0 l/m 2 min 0 min 774 W/m 22,5 km/h (4 Bft) 97,83 %
19.04.2023 15:32 16,3 C 22,8 C 12,2 C 46 % 1023,6 hPa 0,0 l/m 2 min 0 min 770 W/m 25,7 km/h (4 Bft) 93,62 %
19.04.2023 15:34 16,2 C 22,8 C 11,7 C 44 % 1023,5 hPa 0,0 l/m 2 min 0 min 764 W/m 19,3 km/h (3 Bft) 97,87 %
19.04.2023 15:36 16,2 C 23,3 C 12,2 C 44 % 1023,4 hPa 0,0 l/m 2 min 0 min 759 W/m 25,7 km/h (4 Bft) 95,74 %
19.04.2023 15:38 16,2 C 23,3 C 12,2 C 45 % 1023,4 hPa 0,0 l/m 2 min 0 min 754 W/m 19,3 km/h (3 Bft) 93,62 %
19.04.2023 15:40 16,2 C 22,8 C 12,2 C 45 % 1023,4 hPa 0,0 l/m 2 min 0 min 750 W/m 29,0 km/h (5 Bft) 93,62 %
19.04.2023 15:42 16,1 C 22,2 C 12,2 C 44 % 1023,4 hPa 0,0 l/m 2 min 0 min 748 W/m 22,5 km/h (4 Bft) 95,74 %
19.04.2023 15:44 16,1 C 22,2 C 11,7 C 45 % 1023,4 hPa 0,0 l/m 2 min 0 min 747 W/m 16,1 km/h (3 Bft) 93,48 %
19.04.2023 15:46 16,1 C 21,1 C 11,7 C 45 % 1023,3 hPa 0,0 l/m 2 min 0 min 740 W/m 25,7 km/h (4 Bft) 95,74 %
19.04.2023 15:48 15,9 C 20,6 C 11,7 C 45 % 1023,4 hPa 0,0 l/m 2 min 0 min 734 W/m 45,1 km/h (6 Bft) 95,74 %
19.04.2023 15:50 15,9 C 21,1 C 11,7 C 45 % 1023,3 hPa 0,0 l/m 2 min 0 min 728 W/m 22,5 km/h (4 Bft) 91,49 %
19.04.2023 15:52 15,7 C 20,0 C 11,7 C 44 % 1023,3 hPa 0,0 l/m 2 min 0 min 728 W/m 38,6 km/h (5 Bft) 91,49 %
19.04.2023 15:54 15,7 C 19,4 C 11,7 C 45 % 1023,4 hPa 0,0 l/m 2 min 0 min 725 W/m 35,4 km/h (5 Bft) 93,62 %
19.04.2023 15:56 15,7 C 20,0 C 11,7 C 46 % 1023,3 hPa 0,0 l/m 2 min 0 min 723 W/m 19,3 km/h (3 Bft) 91,49 %
19.04.2023 15:58 15,7 C 19,4 C 11,7 C 46 % 1023,3 hPa 0,0 l/m 2 min 0 min 717 W/m 25,7 km/h (4 Bft) 93,62 %
19.04.2023 16:00 15,6 C 19,4 C 11,7 C 45 % 1023,3 hPa 0,0 l/m 2 min 0 min 715 W/m 25,7 km/h (4 Bft) 97,87 %
19.04.2023 16:02 15,6 C 20,0 C 11,7 C 46 % 1023,3 hPa 0,0 l/m 2 min 0 min 712 W/m 19,3 km/h (3 Bft) 93,62 %
19.04.2023 16:04 15,6 C 20,0 C 11,7 C 47 % 1023,3 hPa 0,0 l/m 2 min 0 min 704 W/m 32,2 km/h (5 Bft) 95,45 %
19.04.2023 16:06 15,6 C 20,0 C 11,7 C 46 % 1023,2 hPa 0,0 l/m 2 min 0 min 699 W/m 22,5 km/h (4 Bft) 91,38 %
19.04.2023 16:08 15,6 C 20,6 C 11,7 C 45 % 1023,3 hPa 0,0 l/m 2 min 0 min 696 W/m 19,3 km/h (3 Bft) 91,67 %
19.04.2023 16:10 15,6 C 20,0 C 11,7 C 45 % 1023,3 hPa 0,0 l/m 2 min 0 min 692 W/m 29,0 km/h (5 Bft) 95,65 %
19.04.2023 16:12 15,6 C 20,6 C 11,7 C 46 % 1023,2 hPa 0,0 l/m 2 min 0 min 683 W/m 16,1 km/h (3 Bft) 93,62 %
19.04.2023 16:14 15,6 C 21,1 C 11,7 C 45 % 1023,3 hPa 0,0 l/m 2 min 0 min 676 W/m 22,5 km/h (4 Bft) 93,62 %
19.04.2023 16:16 15,6 C 20,6 C 11,7 C 45 % 1023,2 hPa 0,0 l/m 2 min 0 min 671 W/m 9,7 km/h (2 Bft) 42,86 %
19.04.2023 16:18 15,7 C 21,1 C 12,2 C 47 % 1023,2 hPa 0,0 l/m 2 min 0 min 667 W/m 22,5 km/h (4 Bft) 94,29 %
19.04.2023 16:20 15,8 C 21,1 C 12,2 C 46 % 1023,2 hPa 0,0 l/m 2 min 0 min 660 W/m 25,7 km/h (4 Bft) 97,87 %
19.04.2023 16:22 15,8 C 21,7 C 12,2 C 46 % 1023,1 hPa 0,0 l/m 2 min 0 min 651 W/m 16,1 km/h (3 Bft) 95,74 %
19.04.2023 16:24 15,8 C 21,1 C 12,2 C 46 % 1023,0 hPa 0,0 l/m 2 min 0 min 650 W/m 16,1 km/h (3 Bft) 95,65 %
19.04.2023 16:26 15,9 C 21,1 C 12,2 C 45 % 1023,0 hPa 0,0 l/m 2 min 0 min 644 W/m 16,1 km/h (3 Bft) 95,74 %
19.04.2023 16:28 15,9 C 21,1 C 12,2 C 45 % 1023,0 hPa 0,0 l/m 2 min 0 min 638 W/m 22,5 km/h (4 Bft) 93,62 %
19.04.2023 16:30 16,0 C 21,1 C 12,8 C 46 % 1022,9 hPa 0,0 l/m 2 min 0 min 636 W/m 25,7 km/h (4 Bft) 97,87 %
19.04.2023 16:32 16,1 C 21,7 C 12,8 C 46 % 1022,9 hPa 0,0 l/m 2 min 0 min 632 W/m 19,3 km/h (3 Bft) 97,87 %
19.04.2023 16:34 16,1 C 20,6 C 12,8 C 44 % 1023,0 hPa 0,0 l/m 2 min 0 min 633 W/m 25,7 km/h (4 Bft) 100,00 %
19.04.2023 16:36 16,1 C 21,1 C 12,8 C 43 % 1023,0 hPa 0,0 l/m 2 min 0 min 629 W/m 19,3 km/h (3 Bft) 95,65 %
19.04.2023 16:38 16,1 C 20,6 C 12,8 C 43 % 1022,9 hPa 0,0 l/m 2 min 0 min 624 W/m 19,3 km/h (3 Bft) 97,87 %
19.04.2023 16:40 16,1 C 20,6 C 12,8 C 43 % 1022,8 hPa 0,0 l/m 2 min 0 min 618 W/m 29,0 km/h (5 Bft) 100,00 %
19.04.2023 16:42 16,0 C 19,4 C 12,2 C 42 % 1022,8 hPa 0,0 l/m 2 min 0 min 609 W/m 41,8 km/h (6 Bft) 100,00 %
19.04.2023 16:44 15,9 C 19,4 C 12,2 C 42 % 1022,8 hPa 0,0 l/m 2 min 0 min 605 W/m 29,0 km/h (5 Bft) 100,00 %
19.04.2023 16:46 15,8 C 20,6 C 12,8 C 43 % 1022,7 hPa 0,0 l/m 2 min 0 min 600 W/m 16,1 km/h (3 Bft) 100,00 %
19.04.2023 16:48 15,9 C 21,7 C 12,8 C 45 % 1022,7 hPa 0,0 l/m 2 min 0 min 598 W/m 12,9 km/h (3 Bft) 100,00 %
19.04.2023 16:50 15,9 C 21,7 C 12,8 C 46 % 1022,8 hPa 0,0 l/m 2 min 0 min 593 W/m 22,5 km/h (4 Bft) 100,00 %
19.04.2023 16:52 16,0 C 21,7 C 12,8 C 45 % 1022,7 hPa 0,0 l/m 2 min 0 min 587 W/m 12,9 km/h (3 Bft) 100,00 %
19.04.2023 16:54 16,1 C 21,1 C 12,8 C 45 % 1022,7 hPa 0,0 l/m 2 min 0 min 578 W/m 35,4 km/h (5 Bft) 100,00 %
19.04.2023 16:56 16,1 C 21,1 C 12,8 C 45 % 1022,6 hPa 0,0 l/m 2 min 0 min 572 W/m 19,3 km/h (3 Bft) 100,00 %
19.04.2023 16:58 16,1 C 20,0 C 12,8 C 43 % 1022,6 hPa 0,0 l/m 2 min 0 min 569 W/m 32,2 km/h (5 Bft) 100,00 %
19.04.2023 17:00 16,1 C 18,9 C 12,8 C 42 % 1022,6 hPa 0,0 l/m 2 min 0 min 566 W/m 35,4 km/h (5 Bft) 95,74 %
19.04.2023 17:02 16,1 C 18,9 C 12,8 C 42 % 1022,5 hPa 0,0 l/m 2 min 0 min 564 W/m 19,3 km/h (3 Bft) 95,65 %
19.04.2023 17:04 16,1 C 20,0 C 12,8 C 44 % 1022,5 hPa 0,0 l/m 2 min 0 min 558 W/m 29,0 km/h (5 Bft) 100,00 %
19.04.2023 17:06 16,0 C 20,6 C 12,8 C 43 % 1022,4 hPa 0,0 l/m 2 min 0 min 550 W/m 38,6 km/h (5 Bft) 98,31 %
19.04.2023 17:08 15,9 C 20,6 C 12,8 C 43 % 1022,4 hPa 0,0 l/m 2 min 0 min 544 W/m 19,3 km/h (3 Bft) 100,00 %
19.04.2023 17:10 15,9 C 20,6 C 12,8 C 44 % 1022,5 hPa 0,0 l/m 2 min 0 min 541 W/m 19,3 km/h (3 Bft) 100,00 %
19.04.2023 17:12 15,9 C 21,1 C 12,8 C 44 % 1022,4 hPa 0,0 l/m 2 min 0 min 532 W/m 22,5 km/h (4 Bft) 97,87 %
19.04.2023 17:14 15,9 C 21,1 C 12,8 C 45 % 1022,4 hPa 0,0 l/m 2 min 0 min 527 W/m 12,9 km/h (3 Bft) 100,00 %
19.04.2023 17:16 15,9 C 21,1 C 13,3 C 43 % 1022,3 hPa 0,0 l/m 2 min 0 min 524 W/m 16,1 km/h (3 Bft) 100,00 %
19.04.2023 17:18 15,9 C 20,6 C 13,3 C 43 % 1022,3 hPa 0,0 l/m 2 min 0 min 521 W/m 29,0 km/h (5 Bft) 97,87 %
19.04.2023 17:20 15,9 C 20,6 C 12,8 C 42 % 1022,2 hPa 0,0 l/m 2 min 0 min 514 W/m 16,1 km/h (3 Bft) 97,87 %
19.04.2023 17:22 15,8 C 21,1 C 13,3 C 43 % 1022,2 hPa 0,0 l/m 2 min 0 min 506 W/m 16,1 km/h (3 Bft) 100,00 %
19.04.2023 17:24 15,8 C 21,1 C 12,8 C 42 % 1022,2 hPa 0,0 l/m 2 min 0 min 497 W/m 25,7 km/h (4 Bft) 97,87 %
19.04.2023 17:26 15,8 C 21,1 C 12,8 C 43 % 1022,2 hPa 0,0 l/m 2 min 0 min 492 W/m 16,1 km/h (3 Bft) 100,00 %
19.04.2023 17:28 15,8 C 21,1 C 13,3 C 44 % 1022,2 hPa 0,0 l/m 2 min 0 min 487 W/m 16,1 km/h (3 Bft) 100,00 %
19.04.2023 17:30 15,8 C 20,6 C 13,3 C 45 % 1022,2 hPa 0,0 l/m 2 min 0 min 481 W/m 19,3 km/h (3 Bft) 100,00 %
19.04.2023 17:32 15,8 C 20,6 C 13,3 C 44 % 1022,2 hPa 0,0 l/m 2 min 0 min 476 W/m 19,3 km/h (3 Bft) 100,00 %
19.04.2023 17:34 15,8 C 20,6 C 12,8 C 43 % 1022,2 hPa 0,0 l/m 2 min 0 min 472 W/m 19,3 km/h (3 Bft) 97,87 %
19.04.2023 17:36 15,7 C 21,1 C 12,8 C 44 % 1022,2 hPa 0,0 l/m 2 min 0 min 462 W/m 22,5 km/h (4 Bft) 100,00 %
19.04.2023 17:38 15,7 C 21,1 C 13,3 C 44 % 1022,2 hPa 0,0 l/m 2 min 0 min 456 W/m 16,1 km/h (3 Bft) 97,87 %
19.04.2023 17:40 15,7 C 21,1 C 13,3 C 44 % 1022,2 hPa 0,0 l/m 2 min 0 min 455 W/m 25,7 km/h (4 Bft) 100,00 %
19.04.2023 17:42 15,7 C 21,1 C 12,8 C 44 % 1022,2 hPa 0,0 l/m 2 min 0 min 446 W/m 16,1 km/h (3 Bft) 97,83 %
19.04.2023 17:44 15,7 C 21,1 C 12,8 C 45 % 1022,2 hPa 0,0 l/m 2 min 0 min 442 W/m 19,3 km/h (3 Bft) 100,00 %
19.04.2023 17:46 15,7 C 21,1 C 12,8 C 44 % 1022,2 hPa 0,0 l/m 2 min 0 min 440 W/m 16,1 km/h (3 Bft) 100,00 %
19.04.2023 17:48 15,7 C 21,1 C 13,3 C 44 % 1022,2 hPa 0,0 l/m 2 min 0 min 433 W/m 19,3 km/h (3 Bft) 97,87 %
19.04.2023 17:50 15,7 C 21,1 C 13,3 C 43 % 1022,1 hPa 0,0 l/m 2 min 0 min 428 W/m 22,5 km/h (4 Bft) 100,00 %
19.04.2023 17:52 15,7 C 21,1 C 13,3 C 44 % 1022,1 hPa 0,0 l/m 2 min 0 min 420 W/m 19,3 km/h (3 Bft) 97,87 %
19.04.2023 17:54 15,7 C 19,4 C 12,8 C 42 % 1022,1 hPa 0,0 l/m 2 min 0 min 415 W/m 38,6 km/h (5 Bft) 100,00 %
19.04.2023 17:56 15,6 C 19,4 C 12,8 C 42 % 1022,1 hPa 0,0 l/m 2 min 0 min 408 W/m 25,7 km/h (4 Bft) 95,74 %
19.04.2023 17:58 15,6 C 20,0 C 12,8 C 43 % 1022,1 hPa 0,0 l/m 2 min 0 min 405 W/m 22,5 km/h (4 Bft) 97,87 %
19.04.2023 18:00 15,6 C 20,0 C 12,8 C 43 % 1022,1 hPa 0,0 l/m 2 min 0 min 399 W/m 25,7 km/h (4 Bft) 97,87 %
19.04.2023 18:02 15,5 C 20,0 C 12,8 C 43 % 1022,1 hPa 0,0 l/m 2 min 0 min 395 W/m 22,5 km/h (4 Bft) 95,74 %
19.04.2023 18:04 15,5 C 20,0 C 12,8 C 44 % 1022,1 hPa 0,0 l/m 2 min 0 min 385 W/m 19,3 km/h (3 Bft) 97,92 %
19.04.2023 18:07 15,4 C 20,0 C 12,8 C 44 % 1022,0 hPa 0,0 l/m 3 min 0 min 375 W/m 19,3 km/h (3 Bft) 97,14 %
19.04.2023 18:08 15,4 C 20,0 C 12,8 C 44 % 1022,0 hPa 0,0 l/m 1 min 0 min 368 W/m 22,5 km/h (4 Bft) 95,65 %
19.04.2023 18:12 15,3 C 20,0 C 12,8 C 43 % 1022,1 hPa 0,0 l/m 4 min 0 min 358 W/m 16,1 km/h (3 Bft) 96,61 %
19.04.2023 18:14 15,2 C 20,6 C 12,8 C 44 % 1022,1 hPa 0,0 l/m 2 min 0 min 352 W/m 12,9 km/h (3 Bft) 95,74 %
19.04.2023 18:16 15,3 C 21,1 C 12,8 C 45 % 1022,1 hPa 0,0 l/m 2 min 0 min 346 W/m 22,5 km/h (4 Bft) 93,48 %
19.04.2023 18:18 15,2 C 20,6 C 12,8 C 44 % 1022,1 hPa 0,0 l/m 2 min 0 min 340 W/m 22,5 km/h (4 Bft) 95,74 %
19.04.2023 18:20 15,2 C 20,6 C 12,8 C 46 % 1022,1 hPa 0,0 l/m 2 min 0 min 331 W/m 19,3 km/h (3 Bft) 93,62 %
19.04.2023 18:22 15,2 C 20,6 C 12,8 C 46 % 1022,0 hPa 0,0 l/m 2 min 0 min 323 W/m 12,9 km/h (3 Bft) 95,74 %
19.04.2023 18:24 15,3 C 20,6 C 12,8 C 46 % 1022,1 hPa 0,0 l/m 2 min 0 min 314 W/m 22,5 km/h (4 Bft) 95,74 %
19.04.2023 18:26 15,3 C 20,0 C 12,8 C 45 % 1022,1 hPa 0,0 l/m 2 min 0 min 270 W/m 16,1 km/h (3 Bft) 93,62 %
19.04.2023 18:28 15,3 C 20,6 C 12,8 C 46 % 1022,0 hPa 0,0 l/m 2 min 0 min 258 W/m 19,3 km/h (3 Bft) 95,74 %
19.04.2023 18:30 15,4 C 20,6 C 12,8 C 47 % 1022,0 hPa 0,0 l/m 2 min 0 min 300 W/m 16,1 km/h (3 Bft) 95,65 %
19.04.2023 18:32 15,4 C 20,6 C 12,8 C 46 % 1022,0 hPa 0,0 l/m 2 min 0 min 291 W/m 12,9 km/h (3 Bft) 97,87 %
19.04.2023 18:34 15,4 C 21,1 C 12,8 C 47 % 1022,0 hPa 0,0 l/m 2 min 0 min 281 W/m 12,9 km/h (3 Bft) 97,87 %
19.04.2023 18:36 15,4 C 18,9 C 12,2 C 45 % 1022,0 hPa 0,0 l/m 2 min 0 min 278 W/m 19,3 km/h (3 Bft) 93,62 %
19.04.2023 18:38 15,3 C 17,8 C 11,7 C 45 % 1022,0 hPa 0,0 l/m 2 min 0 min 274 W/m 16,1 km/h (3 Bft) 93,62 %
19.04.2023 18:40 15,2 C 16,7 C 11,7 C 44 % 1022,0 hPa 0,0 l/m 2 min 0 min 265 W/m 19,3 km/h (3 Bft) 93,62 %
19.04.2023 18:42 15,0 C 15,6 C 11,1 C 44 % 1021,9 hPa 0,0 l/m 2 min 0 min 238 W/m 9,7 km/h (2 Bft) 93,48 %
19.04.2023 18:44 14,9 C 15,0 C 10,6 C 45 % 1022,0 hPa 0,0 l/m 2 min 0 min 200 W/m 16,1 km/h (3 Bft) 93,62 %
19.04.2023 18:46 14,7 C 14,4 C 10,6 C 44 % 1022,0 hPa 0,0 l/m 2 min 0 min 159 W/m 25,7 km/h (4 Bft) 91,49 %
19.04.2023 18:48 14,6 C 14,4 C 10,0 C 44 % 1021,9 hPa 0,0 l/m 0 min 0 min 111 W/m 22,5 km/h (4 Bft) 95,74 %
19.04.2023 18:50 14,4 C 13,9 C 10,0 C 45 % 1021,9 hPa 0,0 l/m 0 min 0 min 49 W/m 19,3 km/h (3 Bft) 95,74 %
19.04.2023 18:52 14,3 C 13,9 C 10,0 C 46 % 1021,9 hPa 0,0 l/m 0 min 0 min 54 W/m 9,7 km/h (2 Bft) 97,87 %
19.04.2023 18:54 14,3 C 13,9 C 10,0 C 47 % 1021,9 hPa 0,0 l/m 0 min 0 min 54 W/m 16,1 km/h (3 Bft) 97,83 %
19.04.2023 18:56 14,2 C 13,9 C 10,0 C 47 % 1021,9 hPa 0,0 l/m 0 min 0 min 52 W/m 19,3 km/h (3 Bft) 97,87 %
19.04.2023 18:58 14,1 C 13,9 C 10,0 C 46 % 1022,0 hPa 0,0 l/m 0 min 0 min 50 W/m 25,7 km/h (4 Bft) 97,87 %
19.04.2023 19:00 14,0 C 13,9 C 10,0 C 46 % 1021,9 hPa 0,0 l/m 0 min 0 min 49 W/m 22,5 km/h (4 Bft) 100,00 %
19.04.2023 19:02 13,9 C 13,9 C 9,4 C 45 % 1021,9 hPa 0,0 l/m 0 min 0 min 49 W/m 16,1 km/h (3 Bft) 95,74 %
19.04.2023 19:04 13,9 C 13,9 C 9,4 C 46 % 1021,9 hPa 0,0 l/m 0 min 0 min 49 W/m 22,5 km/h (4 Bft) 97,87 %
19.04.2023 19:06 13,8 C 13,3 C 9,4 C 44 % 1021,9 hPa 0,0 l/m 0 min 0 min 49 W/m 22,5 km/h (4 Bft) 96,55 %
19.04.2023 19:08 13,8 C 13,3 C 9,4 C 45 % 1021,9 hPa 0,0 l/m 0 min 0 min 49 W/m 22,5 km/h (4 Bft) 97,37 %
19.04.2023 19:10 13,7 C 13,3 C 9,4 C 45 % 1021,9 hPa 0,0 l/m 0 min 0 min 48 W/m 19,3 km/h (3 Bft) 97,87 %
19.04.2023 19:12 13,7 C 13,3 C 9,4 C 45 % 1021,9 hPa 0,0 l/m 0 min 0 min 45 W/m 16,1 km/h (3 Bft) 97,83 %
19.04.2023 19:14 13,7 C 13,3 C 9,4 C 45 % 1021,9 hPa 0,0 l/m 0 min 0 min 44 W/m 25,7 km/h (4 Bft) 95,74 %
19.04.2023 19:16 13,6 C 13,3 C 9,4 C 46 % 1021,9 hPa 0,0 l/m 0 min 0 min 44 W/m 19,3 km/h (3 Bft) 97,87 %
19.04.2023 19:18 13,6 C 13,3 C 9,4 C 45 % 1021,8 hPa 0,0 l/m 0 min 0 min 46 W/m 25,7 km/h (4 Bft) 97,87 %
19.04.2023 19:20 13,5 C 13,3 C 9,4 C 45 % 1021,8 hPa 0,0 l/m 0 min 0 min 45 W/m 19,3 km/h (3 Bft) 95,74 %
19.04.2023 19:22 13,4 C 12,8 C 9,4 C 45 % 1021,9 hPa 0,0 l/m 0 min 0 min 41 W/m 16,1 km/h (3 Bft) 97,87 %
19.04.2023 19:24 13,4 C 12,8 C 8,9 C 45 % 1021,9 hPa 0,0 l/m 0 min 0 min 40 W/m 38,6 km/h (5 Bft) 93,48 %
19.04.2023 19:26 13,3 C 12,8 C 8,9 C 45 % 1021,9 hPa 0,0 l/m 0 min 0 min 38 W/m 22,5 km/h (4 Bft) 97,87 %
19.04.2023 19:28 13,3 C 12,8 C 8,9 C 46 % 1021,8 hPa 0,0 l/m 0 min 0 min 37 W/m 16,1 km/h (3 Bft) 97,87 %
19.04.2023 19:30 13,3 C 12,8 C 8,9 C 46 % 1021,8 hPa 0,0 l/m 0 min 0 min 35 W/m 16,1 km/h (3 Bft) 95,74 %
19.04.2023 19:32 13,2 C 12,8 C 8,9 C 46 % 1021,8 hPa 0,0 l/m 0 min 0 min 35 W/m 19,3 km/h (3 Bft) 100,00 %
19.04.2023 19:34 13,2 C 12,8 C 8,9 C 46 % 1021,9 hPa 0,0 l/m 0 min 0 min 33 W/m 19,3 km/h (3 Bft) 100,00 %
19.04.2023 19:36 13,2 C 12,8 C 8,9 C 45 % 1021,8 hPa 0,0 l/m 0 min 0 min 33 W/m 25,7 km/h (4 Bft) 95,65 %
19.04.2023 19:38 13,1 C 12,2 C 8,9 C 44 % 1021,8 hPa 0,0 l/m 0 min 0 min 32 W/m 29,0 km/h (5 Bft) 97,87 %
19.04.2023 19:40 13,1 C 12,2 C 8,9 C 45 % 1021,8 hPa 0,0 l/m 0 min 0 min 32 W/m 16,1 km/h (3 Bft) 100,00 %
19.04.2023 19:42 13,1 C 12,2 C 8,9 C 45 % 1021,8 hPa 0,0 l/m 0 min 0 min 30 W/m 19,3 km/h (3 Bft) 97,87 %
19.04.2023 19:44 13,1 C 12,2 C 8,9 C 45 % 1021,8 hPa 0,0 l/m 0 min 0 min 30 W/m 22,5 km/h (4 Bft) 100,00 %
19.04.2023 19:46 13,0 C 12,2 C 8,9 C 45 % 1021,8 hPa 0,0 l/m 0 min 0 min 28 W/m 25,7 km/h (4 Bft) 100,00 %
19.04.2023 19:48 12,9 C 12,2 C 8,3 C 45 % 1021,9 hPa 0,0 l/m 0 min 0 min 27 W/m 22,5 km/h (4 Bft) 97,87 %
19.04.2023 19:50 12,9 C 12,2 C 8,3 C 46 % 1021,9 hPa 0,0 l/m 0 min 0 min 26 W/m 16,1 km/h (3 Bft) 100,00 %
19.04.2023 19:52 12,8 C 12,2 C 8,3 C 47 % 1021,9 hPa 0,0 l/m 0 min 0 min 26 W/m 9,7 km/h (2 Bft) 100,00 %
19.04.2023 19:54 12,8 C 11,7 C 8,3 C 47 % 1021,9 hPa 0,0 l/m 0 min 0 min 25 W/m 9,7 km/h (2 Bft) 100,00 %
19.04.2023 19:56 12,7 C 11,7 C 8,3 C 46 % 1021,9 hPa 0,0 l/m 0 min 0 min 24 W/m 12,9 km/h (3 Bft) 100,00 %
19.04.2023 19:58 12,7 C 11,7 C 8,3 C 47 % 1021,9 hPa 0,0 l/m 0 min 0 min 22 W/m 16,1 km/h (3 Bft) 100,00 %
19.04.2023 20:00 12,6 C 11,7 C 7,8 C 47 % 1021,9 hPa 0,0 l/m 0 min 0 min 21 W/m 22,5 km/h (4 Bft) 95,74 %
19.04.2023 20:02 12,6 C 11,7 C 7,8 C 47 % 1021,9 hPa 0,0 l/m 0 min 0 min 21 W/m 12,9 km/h (3 Bft) 100,00 %
19.04.2023 20:04 12,5 C 11,7 C 7,8 C 47 % 1021,9 hPa 0,0 l/m 0 min 0 min 19 W/m 22,5 km/h (4 Bft) 100,00 %
19.04.2023 20:06 12,4 C 11,7 C 7,8 C 47 % 1021,9 hPa 0,0 l/m 0 min 0 min 19 W/m 19,3 km/h (3 Bft) 97,87 %
19.04.2023 20:08 12,3 C 11,7 C 7,8 C 47 % 1021,9 hPa 0,0 l/m 0 min 0 min 18 W/m 19,3 km/h (3 Bft) 95,74 %
19.04.2023 20:10 12,3 C 11,7 C 7,8 C 47 % 1021,9 hPa 0,0 l/m 0 min 0 min 18 W/m 12,9 km/h (3 Bft) 91,49 %
19.04.2023 20:12 12,2 C 11,1 C 7,8 C 48 % 1021,9 hPa 0,0 l/m 0 min 0 min 16 W/m 12,9 km/h (3 Bft) 95,74 %
19.04.2023 20:14 12,2 C 11,1 C 7,8 C 48 % 1021,9 hPa 0,0 l/m 0 min 0 min 16 W/m 12,9 km/h (3 Bft) 95,74 %
19.04.2023 20:16 12,1 C 11,1 C 7,8 C 48 % 1022,0 hPa 0,0 l/m 0 min 0 min 15 W/m 12,9 km/h (3 Bft) 95,65 %
19.04.2023 20:18 12,1 C 11,1 C 7,8 C 47 % 1022,0 hPa 0,0 l/m 0 min 0 min 14 W/m 22,5 km/h (4 Bft) 93,62 %
19.04.2023 20:20 12,0 C 11,1 C 7,8 C 47 % 1022,0 hPa 0,0 l/m 0 min 0 min 12 W/m 16,1 km/h (3 Bft) 91,49 %
19.04.2023 20:22 12,0 C 11,1 C 7,2 C 47 % 1022,0 hPa 0,0 l/m 0 min 0 min 12 W/m 12,9 km/h (3 Bft) 93,62 %
19.04.2023 20:24 11,9 C 11,1 C 7,2 C 48 % 1022,1 hPa 0,0 l/m 0 min 0 min 11 W/m 9,7 km/h (2 Bft) 93,62 %
19.04.2023 20:26 11,9 C 11,1 C 7,2 C 48 % 1022,1 hPa 0,0 l/m 0 min 0 min 11 W/m 9,7 km/h (2 Bft) 95,74 %
19.04.2023 20:28 11,8 C 11,1 C 7,2 C 48 % 1022,1 hPa 0,0 l/m 0 min 0 min 9 W/m 16,1 km/h (3 Bft) 95,65 %
19.04.2023 20:30 11,8 C 11,1 C 7,2 C 48 % 1022,1 hPa 0,0 l/m 0 min 0 min 8 W/m 19,3 km/h (3 Bft) 95,74 %
19.04.2023 20:32 11,7 C 11,1 C 7,2 C 48 % 1022,1 hPa 0,0 l/m 0 min 0 min 7 W/m 12,9 km/h (3 Bft) 93,62 %
19.04.2023 20:34 11,7 C 11,1 C 7,2 C 48 % 1022,1 hPa 0,0 l/m 0 min 0 min 6 W/m 22,5 km/h (4 Bft) 95,74 %
19.04.2023 20:36 11,7 C 11,1 C 7,2 C 48 % 1022,1 hPa 0,0 l/m 0 min 0 min 5 W/m 16,1 km/h (3 Bft) 95,74 %
19.04.2023 20:38 11,6 C 11,1 C 7,2 C 49 % 1022,1 hPa 0,0 l/m 0 min 0 min 4 W/m 12,9 km/h (3 Bft) 95,74 %
19.04.2023 20:40 11,6 C 11,1 C 7,2 C 49 % 1022,2 hPa 0,0 l/m 0 min 0 min 0 W/m 19,3 km/h (3 Bft) 97,87 %
19.04.2023 20:42 11,6 C 10,6 C 7,2 C 48 % 1022,2 hPa 0,0 l/m 0 min 0 min 0 W/m 22,5 km/h (4 Bft) 100,00 %
19.04.2023 20:44 11,5 C 10,6 C 7,2 C 49 % 1022,1 hPa 0,0 l/m 0 min 0 min 0 W/m 12,9 km/h (3 Bft) 97,87 %
19.04.2023 20:46 11,4 C 10,6 C 7,2 C 49 % 1022,2 hPa 0,0 l/m 0 min 0 min 0 W/m 16,1 km/h (3 Bft) 100,00 %
19.04.2023 20:48 11,4 C 10,6 C 7,2 C 49 % 1022,3 hPa 0,0 l/m 0 min 0 min 0 W/m 12,9 km/h (3 Bft) 100,00 %
19.04.2023 20:50 11,4 C 10,6 C 7,2 C 49 % 1022,2 hPa 0,0 l/m 0 min 0 min 0 W/m 12,9 km/h (3 Bft) 100,00 %
19.04.2023 20:52 11,4 C 10,6 C 7,2 C 48 % 1022,3 hPa 0,0 l/m 0 min 0 min 0 W/m 25,7 km/h (4 Bft) 100,00 %
19.04.2023 20:54 11,4 C 10,6 C 7,2 C 49 % 1022,3 hPa 0,0 l/m 0 min 0 min 0 W/m 19,3 km/h (3 Bft) 100,00 %
19.04.2023 20:56 11,4 C 10,6 C 7,2 C 49 % 1022,3 hPa 0,0 l/m 0 min 0 min 0 W/m 25,7 km/h (4 Bft) 100,00 %
19.04.2023 20:58 11,4 C 10,6 C 7,2 C 49 % 1022,2 hPa 0,0 l/m 0 min 0 min 0 W/m 22,5 km/h (4 Bft) 100,00 %
19.04.2023 21:00 11,3 C 10,6 C 7,2 C 49 % 1022,4 hPa 0,0 l/m 0 min 0 min 0 W/m 19,3 km/h (3 Bft) 97,87 %
19.04.2023 21:02 11,3 C 10,6 C 7,2 C 49 % 1022,4 hPa 0,0 l/m 0 min 0 min 0 W/m 12,9 km/h (3 Bft) 100,00 %
19.04.2023 21:04 11,3 C 10,6 C 7,2 C 49 % 1022,4 hPa 0,0 l/m 0 min 0 min 0 W/m 12,9 km/h (3 Bft) 100,00 %
19.04.2023 21:06 11,3 C 10,6 C 6,7 C 50 % 1022,4 hPa 0,0 l/m 0 min 0 min 0 W/m 12,9 km/h (3 Bft) 100,00 %
19.04.2023 21:08 11,2 C 10,6 C 6,7 C 49 % 1022,5 hPa 0,0 l/m 0 min 0 min 0 W/m 16,1 km/h (3 Bft) 100,00 %
19.04.2023 21:10 11,2 C 10,6 C 6,7 C 49 % 1022,5 hPa 0,0 l/m 0 min 0 min 0 W/m 16,1 km/h (3 Bft) 100,00 %
19.04.2023 21:12 11,2 C 10,6 C 6,7 C 50 % 1022,5 hPa 0,0 l/m 0 min 0 min 0 W/m 12,9 km/h (3 Bft) 100,00 %
19.04.2023 21:14 11,1 C 10,6 C 6,7 C 50 % 1022,5 hPa 0,0 l/m 0 min 0 min 0 W/m 19,3 km/h (3 Bft) 100,00 %
19.04.2023 21:16 11,1 C 10,6 C 6,7 C 50 % 1022,6 hPa 0,0 l/m 0 min 0 min 0 W/m 19,3 km/h (3 Bft) 100,00 %
19.04.2023 21:18 11,1 C 10,6 C 6,7 C 50 % 1022,6 hPa 0,0 l/m 0 min 0 min 0 W/m 19,3 km/h (3 Bft) 100,00 %
19.04.2023 21:20 11,1 C 10,0 C 6,7 C 51 % 1022,6 hPa 0,0 l/m 0 min 0 min 0 W/m 16,1 km/h (3 Bft) 97,22 %
19.04.2023 21:22 11,0 C 10,0 C 6,7 C 51 % 1022,6 hPa 0,0 l/m 0 min 0 min 0 W/m 12,9 km/h (3 Bft) 97,87 %
19.04.2023 21:24 10,9 C 10,0 C 6,7 C 51 % 1022,6 hPa 0,0 l/m 0 min 0 min 0 W/m 16,1 km/h (3 Bft) 100,00 %
19.04.2023 21:26 10,9 C 10,0 C 6,7 C 51 % 1022,6 hPa 0,0 l/m 0 min 0 min 0 W/m 19,3 km/h (3 Bft) 98,18 %
19.04.2023 21:28 10,9 C 10,0 C 6,7 C 51 % 1022,7 hPa 0,0 l/m 0 min 0 min 0 W/m 16,1 km/h (3 Bft) 97,87 %
19.04.2023 21:30 10,9 C 10,0 C 6,7 C 51 % 1022,7 hPa 0,0 l/m 0 min 0 min 0 W/m 16,1 km/h (3 Bft) 100,00 %
19.04.2023 21:32 10,8 C 10,0 C 6,7 C 51 % 1022,6 hPa 0,0 l/m 0 min 0 min 0 W/m 12,9 km/h (3 Bft) 100,00 %
19.04.2023 21:34 10,8 C 10,0 C 6,7 C 51 % 1022,7 hPa 0,0 l/m 0 min 0 min 0 W/m 12,9 km/h (3 Bft) 97,87 %
19.04.2023 21:36 10,8 C 10,0 C 6,1 C 52 % 1022,7 hPa 0,0 l/m 0 min 0 min 0 W/m 9,7 km/h (2 Bft) 100,00 %
19.04.2023 21:38 10,7 C 10,0 C 6,1 C 53 % 1022,7 hPa 0,0 l/m 0 min 0 min 0 W/m 19,3 km/h (3 Bft) 95,74 %
19.04.2023 21:40 10,7 C 10,0 C 6,1 C 53 % 1022,8 hPa 0,0 l/m 0 min 0 min 0 W/m 16,1 km/h (3 Bft) 100,00 %
19.04.2023 21:42 10,6 C 9,4 C 6,1 C 53 % 1022,7 hPa 0,0 l/m 0 min 0 min 0 W/m 12,9 km/h (3 Bft) 100,00 %
19.04.2023 21:44 10,6 C 9,4 C 6,1 C 54 % 1022,8 hPa 0,0 l/m 0 min 0 min 0 W/m 9,7 km/h (2 Bft) 100,00 %
19.04.2023 21:46 10,5 C 9,4 C 6,1 C 53 % 1022,7 hPa 0,0 l/m 0 min 0 min 0 W/m 22,5 km/h (4 Bft) 97,87 %
19.04.2023 21:48 10,4 C 9,4 C 6,1 C 53 % 1022,7 hPa 0,0 l/m 0 min 0 min 0 W/m 12,9 km/h (3 Bft) 97,87 %
19.04.2023 21:50 10,4 C 9,4 C 6,1 C 53 % 1022,7 hPa 0,0 l/m 0 min 0 min 0 W/m 9,7 km/h (2 Bft) 95,74 %
19.04.2023 21:52 10,3 C 9,4 C 6,1 C 54 % 1022,8 hPa 0,0 l/m 0 min 0 min 0 W/m 12,9 km/h (3 Bft) 97,14 %
19.04.2023 21:54 10,3 C 9,4 C 5,6 C 54 % 1022,8 hPa 0,0 l/m 0 min 0 min 0 W/m 12,9 km/h (3 Bft) 97,87 %
19.04.2023 21:56 10,3 C 9,4 C 5,6 C 54 % 1022,8 hPa 0,0 l/m 0 min 0 min 0 W/m 12,9 km/h (3 Bft) 93,62 %
19.04.2023 21:58 10,3 C 9,4 C 5,6 C 54 % 1022,8 hPa 0,0 l/m 0 min 0 min 0 W/m 12,9 km/h (3 Bft) 89,36 %
19.04.2023 22:00 10,2 C 9,4 C 5,6 C 55 % 1022,8 hPa 0,0 l/m 0 min 0 min 0 W/m 6,4 km/h (2 Bft) 95,74 %
19.04.2023 22:02 10,2 C 9,4 C 5,6 C 55 % 1022,8 hPa 0,0 l/m 0 min 0 min 0 W/m 9,7 km/h (2 Bft) 93,62 %
19.04.2023 22:04 10,1 C 9,4 C 5,6 C 56 % 1022,8 hPa 0,0 l/m 0 min 0 min 0 W/m 9,7 km/h (2 Bft) 93,48 %
19.04.2023 22:06 10,1 C 9,4 C 5,6 C 55 % 1022,9 hPa 0,0 l/m 0 min 0 min 0 W/m 19,3 km/h (3 Bft) 93,22 %
19.04.2023 22:08 10,1 C 9,4 C 5,6 C 55 % 1022,8 hPa 0,0 l/m 0 min 0 min 0 W/m 6,4 km/h (2 Bft) 93,62 %
19.04.2023 22:10 10,1 C 8,9 C 5,6 C 55 % 1022,8 hPa 0,0 l/m 0 min 0 min 0 W/m 9,7 km/h (2 Bft) 94,29 %
19.04.2023 22:12 10,0 C 8,9 C 5,6 C 56 % 1022,8 hPa 0,0 l/m 0 min 0 min 0 W/m 6,4 km/h (2 Bft) 93,62 %
19.04.2023 22:14 9,9 C 8,9 C 5,6 C 55 % 1022,8 hPa 0,0 l/m 0 min 0 min 0 W/m 12,9 km/h (3 Bft) 93,62 %
19.04.2023 22:16 9,9 C 8,9 C 5,6 C 55 % 1022,9 hPa 0,0 l/m 0 min 0 min 0 W/m 6,4 km/h (2 Bft) 89,13 %
19.04.2023 22:18 9,9 C 8,9 C 5,6 C 56 % 1022,9 hPa 0,0 l/m 0 min 0 min 0 W/m 3,2 km/h (1 Bft) 93,62 %
19.04.2023 22:20 9,8 C 8,9 C 5,6 C 56 % 1022,8 hPa 0,0 l/m 0 min 0 min 0 W/m 6,4 km/h (2 Bft) 95,74 %
19.04.2023 22:22 9,8 C 8,9 C 5,6 C 56 % 1022,8 hPa 0,0 l/m 0 min 0 min 0 W/m 6,4 km/h (2 Bft) 91,49 %
19.04.2023 22:24 9,8 C 8,9 C 5,6 C 56 % 1022,8 hPa 0,0 l/m 0 min 0 min 0 W/m 6,4 km/h (2 Bft) 93,62 %
19.04.2023 22:26 9,8 C 8,9 C 5,6 C 56 % 1022,8 hPa 0,0 l/m 0 min 0 min 0 W/m 9,7 km/h (2 Bft) 93,62 %
19.04.2023 22:28 9,7 C 8,9 C 5,0 C 56 % 1022,9 hPa 0,0 l/m 0 min 0 min 0 W/m 6,4 km/h (2 Bft) 95,65 %
19.04.2023 22:30 9,7 C 8,9 C 5,0 C 56 % 1022,9 hPa 0,0 l/m 0 min 0 min 0 W/m 9,7 km/h (2 Bft) 95,74 %
19.04.2023 22:32 9,7 C 8,9 C 5,0 C 57 % 1022,9 hPa 0,0 l/m 0 min 0 min 0 W/m 6,4 km/h (2 Bft) 95,74 %
19.04.2023 22:34 9,6 C 8,9 C 5,0 C 57 % 1022,9 hPa 0,0 l/m 0 min 0 min 0 W/m 6,4 km/h (2 Bft) 95,74 %
19.04.2023 22:36 9,6 C 8,9 C 5,0 C 57 % 1022,9 hPa 0,0 l/m 0 min 0 min 0 W/m 9,7 km/h (2 Bft) 95,74 %
19.04.2023 22:38 9,6 C 8,3 C 5,0 C 57 % 1022,9 hPa 0,0 l/m 0 min 0 min 0 W/m 6,4 km/h (2 Bft) 95,74 %
19.04.2023 22:40 9,6 C 8,3 C 5,0 C 57 % 1022,9 hPa 0,0 l/m 0 min 0 min 0 W/m 9,7 km/h (2 Bft) 95,74 %
19.04.2023 22:42 9,5 C 8,3 C 5,0 C 57 % 1022,9 hPa 0,0 l/m 0 min 0 min 0 W/m 12,9 km/h (3 Bft) 95,65 %
19.04.2023 22:44 9,5 C 8,3 C 5,0 C 57 % 1022,9 hPa 0,0 l/m 0 min 0 min 0 W/m 19,3 km/h (3 Bft) 93,75 %
19.04.2023 22:46 9,4 C 8,3 C 5,0 C 57 % 1022,8 hPa 0,0 l/m 0 min 0 min 0 W/m 6,4 km/h (2 Bft) 100,00 %
19.04.2023 22:48 9,4 C 8,3 C 5,0 C 58 % 1022,9 hPa 0,0 l/m 0 min 0 min 0 W/m 6,4 km/h (2 Bft) 97,87 %
19.04.2023 22:50 9,4 C 8,3 C 5,0 C 58 % 1022,8 hPa 0,0 l/m 0 min 0 min 0 W/m 6,4 km/h (2 Bft) 97,87 %
19.04.2023 22:52 9,4 C 8,3 C 5,0 C 58 % 1022,8 hPa 0,0 l/m 0 min 0 min 0 W/m 12,9 km/h (3 Bft) 100,00 %
19.04.2023 22:54 9,3 C 8,3 C 5,0 C 58 % 1022,9 hPa 0,0 l/m 0 min 0 min 0 W/m 9,7 km/h (2 Bft) 97,83 %
19.04.2023 22:56 9,3 C 8,3 C 5,0 C 58 % 1022,9 hPa 0,0 l/m 0 min 0 min 0 W/m 9,7 km/h (2 Bft) 100,00 %
19.04.2023 22:58 9,3 C 8,3 C 5,0 C 58 % 1022,9 hPa 0,0 l/m 0 min 0 min 0 W/m 6,4 km/h (2 Bft) 100,00 %
19.04.2023 23:00 9,2 C 8,3 C 5,0 C 58 % 1022,9 hPa 0,0 l/m 0 min 0 min 0 W/m 9,7 km/h (2 Bft) 100,00 %
19.04.2023 23:02 9,2 C 8,3 C 5,0 C 58 % 1022,9 hPa 0,0 l/m 0 min 0 min 0 W/m 6,4 km/h (2 Bft) 100,00 %
19.04.2023 23:04 9,2 C 8,3 C 4,4 C 58 % 1022,9 hPa 0,0 l/m 0 min 0 min 0 W/m 6,4 km/h (2 Bft) 100,00 %
19.04.2023 23:06 9,2 C 8,3 C 5,0 C 59 % 1022,9 hPa 0,0 l/m 0 min 0 min 0 W/m 16,1 km/h (3 Bft) 100,00 %
19.04.2023 23:08 9,2 C 8,3 C 5,0 C 58 % 1022,8 hPa 0,0 l/m 0 min 0 min 0 W/m 9,7 km/h (2 Bft) 100,00 %
19.04.2023 23:10 9,2 C 8,3 C 5,0 C 58 % 1022,8 hPa 0,0 l/m 0 min 0 min 0 W/m 16,1 km/h (3 Bft) 100,00 %
19.04.2023 23:12 9,1 C 8,3 C 5,0 C 59 % 1022,8 hPa 0,0 l/m 0 min 0 min 0 W/m 12,9 km/h (3 Bft) 100,00 %
19.04.2023 23:14 9,1 C 8,3 C 5,0 C 59 % 1022,8 hPa 0,0 l/m 0 min 0 min 0 W/m 6,4 km/h (2 Bft) 100,00 %
19.04.2023 23:16 9,1 C 8,3 C 5,0 C 59 % 1022,8 hPa 0,0 l/m 0 min 0 min 0 W/m 9,7 km/h (2 Bft) 100,00 %
19.04.2023 23:18 9,1 C 8,3 C 4,4 C 59 % 1022,8 hPa 0,0 l/m 0 min 0 min 0 W/m 9,7 km/h (2 Bft) 100,00 %
19.04.2023 23:20 9,1 C 8,3 C 4,4 C 59 % 1022,8 hPa 0,0 l/m 0 min 0 min 0 W/m 9,7 km/h (2 Bft) 100,00 %
19.04.2023 23:22 9,1 C 8,3 C 4,4 C 59 % 1022,8 hPa 0,0 l/m 0 min 0 min 0 W/m 22,5 km/h (4 Bft) 97,87 %
19.04.2023 23:24 9,1 C 8,3 C 4,4 C 59 % 1022,8 hPa 0,0 l/m 0 min 0 min 0 W/m 16,1 km/h (3 Bft) 100,00 %
19.04.2023 23:26 9,1 C 8,3 C 4,4 C 59 % 1022,8 hPa 0,0 l/m 0 min 0 min 0 W/m 12,9 km/h (3 Bft) 97,87 %
19.04.2023 23:28 9,0 C 8,3 C 4,4 C 59 % 1022,8 hPa 0,0 l/m 0 min 0 min 0 W/m 6,4 km/h (2 Bft) 100,00 %
19.04.2023 23:30 9,0 C 8,3 C 4,4 C 59 % 1022,8 hPa 0,0 l/m 0 min 0 min 0 W/m 9,7 km/h (2 Bft) 100,00 %
19.04.2023 23:32 9,0 C 8,3 C 4,4 C 60 % 1022,8 hPa 0,0 l/m 0 min 0 min 0 W/m 12,9 km/h (3 Bft) 98,00 %
19.04.2023 23:34 9,0 C 8,3 C 4,4 C 59 % 1022,8 hPa 0,0 l/m 0 min 0 min 0 W/m 9,7 km/h (2 Bft) 95,65 %
19.04.2023 23:36 9,0 C 8,3 C 4,4 C 60 % 1022,8 hPa 0,0 l/m 0 min 0 min 0 W/m 12,9 km/h (3 Bft) 94,44 %
19.04.2023 23:38 8,9 C 7,8 C 4,4 C 60 % 1022,8 hPa 0,0 l/m 0 min 0 min 0 W/m 16,1 km/h (3 Bft) 96,77 %
19.04.2023 23:40 8,9 C 7,8 C 4,4 C 60 % 1022,8 hPa 0,0 l/m 0 min 0 min 0 W/m 9,7 km/h (2 Bft) 98,15 %
19.04.2023 23:42 8,9 C 7,8 C 4,4 C 60 % 1022,8 hPa 0,0 l/m 0 min 0 min 0 W/m 12,9 km/h (3 Bft) 97,87 %
19.04.2023 23:44 8,9 C 7,8 C 4,4 C 60 % 1022,8 hPa 0,0 l/m 0 min 0 min 0 W/m 6,4 km/h (2 Bft) 93,62 %
19.04.2023 23:46 8,8 C 7,8 C 4,4 C 60 % 1022,8 hPa 0,0 l/m 0 min 0 min 0 W/m 25,7 km/h (4 Bft) 97,83 %
19.04.2023 23:48 8,8 C 7,8 C 4,4 C 60 % 1022,8 hPa 0,0 l/m 0 min 0 min 0 W/m 6,4 km/h (2 Bft) 98,00 %
19.04.2023 23:50 8,8 C 7,8 C 4,4 C 60 % 1022,8 hPa 0,0 l/m 0 min 0 min 0 W/m 9,7 km/h (2 Bft) 96,15 %
19.04.2023 23:52 8,8 C 7,8 C 4,4 C 60 % 1022,8 hPa 0,0 l/m 0 min 0 min 0 W/m 22,5 km/h (4 Bft) 95,74 %
19.04.2023 23:54 8,8 C 7,8 C 4,4 C 59 % 1022,8 hPa 0,0 l/m 0 min 0 min 0 W/m 16,1 km/h (3 Bft) 95,74 %
19.04.2023 23:56 8,8 C 8,3 C 4,4 C 59 % 1022,8 hPa 0,0 l/m 0 min 0 min 0 W/m 16,1 km/h (3 Bft) 97,83 %
19.04.2023 23:58 8,8 C 8,3 C 4,4 C 59 % 1022,8 hPa 0,0 l/m 0 min 0 min 0 W/m 22,5 km/h (4 Bft) 97,87 %
_ Min-Zeit 23:46 23:38 23:04 16:42 19:18 - - - - 04:02 05:38
Minimum _ 8,8 C 7,8 C 4,4 C 42 % 1021,8 hPa - - - - 3,2 km/h (1 Bft) 28,57 %
_ Max-Zeit 15:26 12:16 12:38 04:10 00:20 00:00 09:26 00:00 14:10 15:48 00:00
Maximum _ 16,3 C 25,0 C 14,4 C 87 % 1026,8 hPa 0,0 l/m 4 min 0 min 981 W/m 45,1 km/h
NO (6 Bft)
100,00 %
Durchschnitt _ 12,2 C 14,1 C 8,2 C 63 % 1024,6 hPa #0,0 l/m #9:06 h #0 min. 434 W/m 17,1 km/h (3 Bft) 97,21 %
© 2023 W. Hausmann